GFSMA_prec_kuchsnow_195.txt.gz
Snowfall_Accumulation
0.0 0.0 0.0 0.0 0.0 0.0 0.0 0.0 0.0 0.0 0.0 0.0 0.0 0.0 0.0 0.0 0.0 0.0 0.0 0.0 0.0 0.0 0.0 0.0 0.0 0.0 0.0 0.0 0.0 0.0 0.0 0.0 0.0 0.0 0.0 0.0 0.0 0.0 0.0 0.0 0.0 0.0 0.0
0.0 0.0 0.0 0.0 0.0 0.0 0.0 0.0 0.0 0.0 0.0 0.0 0.0 0.0 0.0 0.0 0.0 0.0 0.0 0.0 0.0 0.0 0.0 0.0 0.0 0.0 0.0 0.0 0.0 0.0 0.0 0.0 0.0 0.0 0.0 0.0 0.0 0.0 0.0 0.0 0.0 0.0 0.0
0.0 0.0 0.0 0.0 0.0 0.0 0.0 0.0 0.0 0.0 0.0 0.0 0.0 0.0 0.0 0.0 0.0 0.0 0.0 0.0 0.0 0.0 0.0 0.0 0.0 0.0 0.0 0.0 0.0 0.0 0.0 0.0 0.0 0.0 0.0 0.0 0.0 0.0 0.0 0.0 0.0 0.0 0.0
0.0 0.0 0.0 0.0 0.0 0.0 0.0 0.0 0.0 0.0 0.0 0.0 0.0 0.0 0.0 0.0 0.0 0.0 0.0 0.0 0.0 0.0 0.0 0.0 0.0 0.0 0.0 0.0 0.0 0.0 0.0 0.0 0.0 0.0 0.0 0.0 0.0 0.0 0.0 0.0 0.0 0.0 0.0
0.0 0.0 0.0 0.0 0.0 0.0 0.0 0.0 0.0 0.0 0.0 0.0 0.0 0.0 0.0 0.0 0.0 0.0 0.0 0.0 0.0 0.0 0.0 0.0 0.0 0.0 0.0 0.0 0.0 0.0 0.0 0.0 0.0 0.0 0.0 0.0 0.0 0.0 0.0 0.0 0.0 0.0 0.0
0.0 0.0 0.0 0.0 0.0 0.0 0.0 0.0 0.0 0.0 0.0 0.0 0.0 0.0 0.0 0.0 0.0 0.0 0.0 0.0 0.0 0.0 0.0 0.0 0.0 0.0 0.0 0.0 0.0 0.0 0.0 0.0 0.0 0.0 0.0 0.0 0.0 0.0 0.0 0.0 0.0 0.0 0.0
0.0 0.0 0.0 0.0 0.0 0.0 0.0 0.0 0.0 0.0 0.0 0.0 0.0 0.0 0.0 0.0 0.0 0.0 0.0 0.0 0.0 0.0 0.0 0.0 0.0 0.0 0.0 0.0 0.0 0.0 0.0 0.0 0.0 0.0 0.0 0.0 0.0 0.0 0.0 0.0 0.0 0.0 0.0
0.0 0.0 0.0 0.0 0.0 0.0 0.0 0.0 0.0 0.0 0.0 0.0 0.0 0.0 0.0 0.0 0.0 0.0 0.0 0.0 0.0 0.0 0.0 0.0 0.0 0.0 0.0 0.0 0.0 0.0 0.0 0.0 0.0 0.0 0.0 0.0 0.0 0.0 0.0 0.0 0.0 0.0 0.0
0.0 0.0 0.0 0.0 0.0 0.0 0.0 0.0 0.0 0.0 0.1 0.0 0.0 0.1 0.2 0.0 0.0 0.0 0.0 0.0 0.0 0.0 0.0 0.0 0.0 0.0 0.0 0.0 0.0 0.0 0.0 0.0 0.0 0.0 0.0 0.0 0.0 0.0 0.0 0.0 0.0 0.0 0.0
0.0 0.0 0.0 0.0 0.0 0.0 0.0 0.0 0.0 0.0 0.1 0.1 0.0 0.0 0.0 0.1 0.4 0.0 0.0 0.0 0.0 0.0 0.0 0.0 0.0 0.0 0.0 0.0 0.0 0.0 0.0 0.0 0.0 0.0 0.0 0.0 0.0 0.0 0.0 0.0 0.0 0.0 0.0
0.0 0.0 0.0 0.0 0.0 0.0 0.0 0.0 0.0 0.0 0.0 0.1 0.1 0.1 0.0 0.0 0.0 0.2 0.0 0.0 0.0 0.0 0.0 0.0 0.0 0.0 0.0 0.0 0.0 0.0 0.0 0.0 0.0 0.0 0.0 0.0 0.0 0.0 0.0 0.0 0.0 0.0 0.0
0.0 0.0 0.0 0.0 0.0 0.0 0.1 0.0 0.1 0.1 0.1 0.1 0.1 0.1 0.2 0.4 0.2 0.4 0.4 0.0 0.0 0.0 0.0 0.0 0.0 0.0 0.0 0.0 0.0 0.0 0.0 0.0 0.0 0.0 0.0 0.0 0.0 0.0 0.0 0.0 0.0 0.0 0.0
0.0 0.0 0.0 0.0 0.0 0.1 0.1 0.1 0.0 0.1 0.2 0.2 0.3 0.2 0.1 0.1 0.1 0.1 0.4 0.1 0.1 0.0 0.0 0.0 0.0 0.0 0.0 0.0 0.0 0.0 0.0 0.0 0.0 0.0 0.0 0.0 0.0 0.0 0.0 0.0 0.0 0.0 0.0
0.2 0.1 0.2 0.0 0.0 0.2 0.0 0.1 0.1 0.1 0.2 0.4 0.2 0.2 0.2 0.2 0.0 0.1 0.4 0.6 0.6 0.0 0.0 0.0 0.0 0.0 0.0 0.0 0.0 0.0 0.0 0.0 0.0 0.0 0.0 0.0 0.0 0.0 0.0 0.0 0.0 0.0 0.0
0.2 0.2 0.1 0.1 0.1 0.1 0.1 0.1 0.2 0.3 0.3 0.6 0.6 0.5 0.4 0.3 0.2 0.0 0.1 0.3 2.4 3.3 0.5 0.0 0.1 0.0 0.0 0.0 0.0 0.0 0.1 0.0 0.0 0.0 0.1 0.0 0.0 0.0 0.0 0.0 0.0 0.0 0.0
0.9 0.7 0.4 0.4 0.3 0.4 0.2 0.2 0.4 0.6 0.5 0.5 0.6 0.6 0.5 0.5 0.4 0.5 0.3 0.1 0.5 1.7 1.7 0.2 0.2 0.2 0.1 0.0 0.1 0.1 0.2 0.7 0.6 0.6 0.2 0.3 0.0 0.0 0.0 0.0 0.0 0.0 0.0
1.0 0.8 1.0 1.0 1.2 1.2 1.1 1.0 0.8 0.8 0.9 0.6 0.4 1.0 0.9 0.6 0.8 0.9 0.7 0.5 0.3 0.7 1.4 1.0 0.4 0.3 0.3 0.3 0.1 0.1 0.2 0.3 2.3 1.6 0.7 0.2 0.1 0.0 0.0 0.0 0.0 0.0 0.0
1.3 1.4 1.3 1.1 1.2 1.4 1.4 1.7 1.8 1.6 1.7 1.4 1.2 1.0 1.1 0.8 1.3 1.7 1.6 1.4 1.2 1.1 1.0 1.3 0.7 0.8 0.9 1.0 1.7 0.9 0.5 0.1 0.5 1.1 1.5 1.3 0.3 0.2 0.0 0.1 0.2 0.0 0.1
2.1 1.4 1.6 2.1 1.8 1.7 1.5 1.6 1.8 1.7 1.7 1.8 2.0 2.0 2.2 1.3 1.0 2.1 3.1 3.5 2.0 0.9 1.5 2.1 2.3 1.2 1.0 1.0 1.3 1.7 0.6 0.4 0.0 0.4 1.2 1.9 2.1 1.4 0.8 0.4 0.2 0.0 0.0
0.9 1.1 1.6 2.4 2.7 1.9 1.4 1.7 1.5 1.5 1.7 2.5 2.6 2.3 2.7 2.3 2.8 2.3 2.5 4.2 3.8 3.2 2.7 3.2 3.3 2.3 1.8 1.6 1.1 1.6 1.8 1.3 0.9 0.1 0.1 0.4 0.3 0.3 0.7 1.3 1.8 0.5 0.4
1.2 0.3 0.0 0.2 0.3 0.9 1.8 1.5 1.5 1.3 1.0 1.9 2.1 1.3 1.6 1.9 1.8 2.5 3.0 3.5 3.1 3.5 3.5 4.0 4.3 4.0 3.7 3.1 3.2 2.5 2.3 2.4 1.5 1.1 0.2 0.0 0.0 0.1 0.1 0.1 1.0 1.6 2.0
1.3 1.7 2.2 1.9 1.5 1.7 0.6 0.7 1.1 1.3 2.4 2.3 1.1 1.2 1.0 0.8 0.9 1.1 1.6 1.4 1.4 2.3 3.8 3.3 3.6 4.4 5.1 4.2 4.2 3.4 3.2 3.4 2.9 1.4 1.9 1.1 0.0 0.1 0.1 0.1 0.4 0.5 0.8
5.7 4.3 5.6 3.7 4.6 4.9 2.9 1.4 1.1 1.5 1.5 1.5 0.7 0.8 0.8 0.5 0.1 0.2 0.0 0.0 0.1 0.2 0.7 1.0 1.8 1.6 2.2 2.2 1.6 1.0 1.5 1.7 1.8 0.5 0.8 1.5 0.3 0.1 0.0 0.0 0.2 0.2 0.2
8.7 8.6 9.4 9.7 9.3 11.6 7.4 10.7 12.0 7.2 6.7 7.6 7.5 5.6 2.1 1.1 1.6 0.5 0.8 0.5 0.1 0.2 0.1 0.1 0.3 0.3 1.1 0.1 0.2 0.1 2.5 2.1 3.1 1.4 1.2 2.8 1.0 1.9 1.0 0.6 0.8 0.3 0.2
17.6 16.4 13.9 12.0 11.9 8.3 6.2 4.4 6.4 10.7 14.7 13.6 7.8 8.1 8.2 10.8 8.5 6.2 3.2 1.6 1.6 1.3 1.6 3.8 0.7 2.6 1.8 2.0 1.9 2.9 2.7 4.2 3.3 2.3 1.3 1.6 1.3 4.7 6.8 6.9 5.3 3.5 2.8
14.2 14.5 15.5 15.1 12.5 14.1 8.5 7.9 6.5 5.3 6.0 6.3 7.5 9.3 7.2 7.4 8.2 6.8 3.1 6.3 3.7 3.1 6.0 3.9 6.2 5.5 4.6 4.6 2.4 5.4 3.4 8.3 7.6 8.4 7.9 9.9 8.3 10.1 10.6 5.7 5.6 4.4 3.4

GFSMA_prec_kuchsnow_198.txt.gz
Snowfall_Accumulation
0.0 0.0 0.0 0.0 0.0 0.0 0.0 0.0 0.0 0.0 0.0 0.0 0.0 0.0 0.0 0.0 0.0 0.0 0.0 0.0 0.0 0.0 0.0 0.0 0.0 0.0 0.0 0.0 0.0 0.0 0.0 0.0 0.0 0.0 0.0 0.0 0.0 0.0 0.0 0.0 0.0 0.0 0.0
0.0 0.0 0.0 0.0 0.0 0.0 0.0 0.0 0.0 0.0 0.0 0.0 0.0 0.0 0.0 0.0 0.0 0.0 0.0 0.0 0.0 0.0 0.0 0.0 0.0 0.0 0.0 0.0 0.0 0.0 0.0 0.0 0.0 0.0 0.0 0.0 0.0 0.0 0.0 0.0 0.0 0.0 0.0
0.0 0.0 0.0 0.0 0.0 0.0 0.0 0.0 0.0 0.0 0.0 0.0 0.0 0.0 0.0 0.0 0.0 0.0 0.0 0.0 0.0 0.0 0.0 0.0 0.0 0.0 0.0 0.0 0.0 0.0 0.0 0.0 0.0 0.0 0.0 0.0 0.0 0.0 0.0 0.0 0.0 0.0 0.0
0.0 0.0 0.0 0.0 0.0 0.0 0.0 0.0 0.0 0.0 0.0 0.0 0.0 0.0 0.0 0.0 0.0 0.0 0.0 0.0 0.0 0.0 0.0 0.0 0.0 0.0 0.0 0.0 0.0 0.0 0.0 0.0 0.0 0.0 0.0 0.0 0.0 0.0 0.0 0.0 0.0 0.0 0.0
0.0 0.0 0.0 0.0 0.0 0.0 0.0 0.0 0.0 0.0 0.0 0.0 0.0 0.0 0.0 0.0 0.0 0.0 0.0 0.0 0.0 0.0 0.0 0.0 0.0 0.0 0.0 0.0 0.0 0.0 0.0 0.0 0.0 0.0 0.0 0.0 0.0 0.0 0.0 0.0 0.0 0.0 0.0
0.0 0.0 0.0 0.0 0.0 0.0 0.0 0.0 0.0 0.0 0.0 0.0 0.0 0.0 0.0 0.0 0.0 0.0 0.0 0.0 0.0 0.0 0.0 0.0 0.0 0.0 0.0 0.0 0.0 0.0 0.0 0.0 0.0 0.0 0.0 0.0 0.0 0.0 0.0 0.0 0.0 0.0 0.0
0.0 0.0 0.0 0.0 0.0 0.0 0.0 0.0 0.0 0.0 0.0 0.0 0.0 0.0 0.0 0.0 0.0 0.0 0.0 0.0 0.0 0.0 0.0 0.0 0.0 0.0 0.0 0.0 0.0 0.0 0.0 0.0 0.0 0.0 0.0 0.0 0.0 0.0 0.0 0.0 0.0 0.0 0.0
0.0 0.0 0.0 0.0 0.0 0.0 0.0 0.0 0.0 0.0 0.0 0.0 0.0 0.0 0.0 0.0 0.0 0.0 0.0 0.0 0.0 0.0 0.0 0.0 0.0 0.0 0.0 0.0 0.0 0.0 0.0 0.0 0.0 0.0 0.0 0.0 0.0 0.0 0.0 0.0 0.0 0.0 0.0
0.0 0.0 0.0 0.0 0.0 0.0 0.0 0.0 0.0 0.0 0.1 0.0 0.0 0.1 0.2 0.0 0.0 0.0 0.0 0.0 0.0 0.0 0.0 0.0 0.0 0.0 0.0 0.0 0.0 0.0 0.0 0.0 0.0 0.0 0.0 0.0 0.0 0.0 0.0 0.0 0.0 0.0 0.0
0.0 0.0 0.0 0.0 0.0 0.0 0.0 0.0 0.0 0.0 0.1 0.1 0.0 0.0 0.0 0.1 0.4 0.0 0.0 0.0 0.0 0.0 0.0 0.0 0.0 0.0 0.0 0.0 0.0 0.0 0.0 0.0 0.0 0.0 0.0 0.0 0.0 0.0 0.0 0.0 0.0 0.0 0.0
0.0 0.0 0.0 0.0 0.0 0.0 0.0 0.0 0.0 0.0 0.0 0.1 0.1 0.1 0.0 0.0 0.0 0.2 0.0 0.0 0.0 0.0 0.0 0.0 0.0 0.0 0.0 0.0 0.0 0.0 0.0 0.0 0.0 0.0 0.0 0.0 0.0 0.0 0.0 0.0 0.0 0.0 0.0
0.0 0.0 0.0 0.0 0.0 0.0 0.1 0.0 0.1 0.1 0.1 0.1 0.1 0.1 0.2 0.4 0.2 0.4 0.4 0.0 0.0 0.0 0.0 0.0 0.0 0.0 0.0 0.0 0.0 0.0 0.0 0.0 0.0 0.0 0.0 0.0 0.0 0.0 0.0 0.0 0.0 0.0 0.0
0.0 0.0 0.0 0.0 0.0 0.1 0.1 0.1 0.0 0.1 0.2 0.2 0.3 0.2 0.1 0.1 0.1 0.1 0.4 0.1 0.1 0.0 0.0 0.0 0.0 0.0 0.0 0.0 0.0 0.0 0.0 0.0 0.0 0.0 0.0 0.0 0.0 0.0 0.0 0.0 0.0 0.0 0.0
0.2 0.1 0.2 0.0 0.0 0.2 0.0 0.1 0.1 0.1 0.2 0.4 0.2 0.2 0.2 0.2 0.0 0.1 0.4 0.6 0.6 0.0 0.0 0.0 0.0 0.0 0.0 0.0 0.0 0.0 0.0 0.0 0.0 0.0 0.0 0.0 0.0 0.0 0.0 0.0 0.0 0.0 0.0
0.2 0.2 0.1 0.1 0.1 0.1 0.1 0.1 0.2 0.3 0.3 0.6 0.6 0.5 0.4 0.3 0.2 0.0 0.1 0.3 2.4 3.3 0.5 0.0 0.1 0.0 0.0 0.0 0.0 0.0 0.1 0.0 0.0 0.0 0.1 0.0 0.0 0.0 0.0 0.0 0.0 0.0 0.0
0.9 0.7 0.4 0.4 0.3 0.4 0.2 0.2 0.4 0.6 0.5 0.5 0.6 0.6 0.5 0.5 0.4 0.5 0.3 0.1 0.5 1.7 1.7 0.2 0.2 0.2 0.1 0.0 0.1 0.1 0.2 0.7 0.6 0.6 0.2 0.3 0.0 0.0 0.0 0.0 0.0 0.0 0.0
1.0 0.8 1.0 1.0 1.2 1.2 1.1 1.0 0.8 0.8 0.9 0.6 0.4 1.0 0.9 0.6 0.8 0.9 0.7 0.5 0.3 0.7 1.4 1.0 0.4 0.3 0.3 0.3 0.3 0.1 0.2 0.3 2.3 1.6 0.7 0.2 0.1 0.0 0.0 0.0 0.0 0.0 0.0
1.3 1.4 1.3 1.1 1.2 1.4 1.4 1.7 1.8 1.6 1.7 1.4 1.2 1.0 1.1 0.8 1.3 1.7 1.6 1.4 1.2 1.1 1.0 1.3 0.7 0.8 0.9 1.3 1.9 0.9 0.5 0.1 0.5 1.1 1.5 1.3 0.3 0.2 0.0 0.1 0.2 0.0 0.1
2.1 1.4 1.6 2.1 1.8 1.7 1.5 1.6 1.8 1.7 1.7 1.8 2.0 2.0 2.2 1.3 1.0 2.1 3.1 3.5 2.0 0.9 1.5 2.1 2.3 1.2 1.6 1.6 1.6 1.8 0.6 0.4 0.0 0.4 1.2 1.9 2.1 1.4 0.8 0.4 0.2 0.0 0.0
0.9 1.1 1.6 2.4 2.7 1.9 1.4 1.7 1.5 1.5 1.7 2.5 2.6 2.3 2.7 2.3 2.8 2.3 2.5 4.2 3.8 3.2 2.7 3.2 3.3 2.8 2.3 2.0 1.2 1.7 1.9 1.3 0.9 0.1 0.1 0.4 0.3 0.3 0.7 1.3 1.8 0.5 0.4
1.2 0.3 0.0 0.2 0.3 0.9 1.8 1.5 1.5 1.3 1.0 1.9 2.1 1.3 1.6 1.9 1.8 2.5 3.0 3.5 3.1 3.5 3.5 4.0 4.3 4.5 3.9 3.4 3.5 2.5 2.3 2.4 1.5 1.1 0.2 0.0 0.0 0.1 0.1 0.1 1.0 1.6 2.0
1.3 1.7 2.2 1.9 1.5 1.7 0.6 0.7 1.1 1.3 2.4 2.3 1.1 1.2 1.0 0.8 0.9 1.1 1.6 1.4 1.4 2.3 3.8 3.3 3.6 4.7 5.2 4.2 4.2 3.4 3.2 3.4 2.9 1.4 1.9 1.1 0.0 0.1 0.1 0.1 0.4 0.5 0.8
5.7 4.3 5.6 3.7 4.6 4.9 2.9 1.4 1.1 1.5 1.5 1.5 0.7 0.8 0.8 0.5 0.1 0.2 0.0 0.0 0.1 0.2 0.7 1.0 1.8 1.6 2.2 2.2 1.6 1.0 1.5 1.7 1.8 0.5 0.8 1.5 0.3 0.1 0.0 0.0 0.2 0.2 0.2
9.0 8.8 9.6 10.0 9.7 11.6 7.4 10.7 12.0 7.2 6.7 7.6 7.5 5.6 2.1 1.1 1.6 0.5 0.8 0.5 0.1 0.2 0.1 0.1 0.3 0.3 1.1 0.1 0.2 0.1 2.5 2.1 3.1 1.4 1.2 2.8 1.0 1.9 1.0 0.6 0.8 0.3 0.2
17.8 16.7 14.2 12.4 12.5 9.0 6.7 4.4 6.4 10.7 15.9 14.9 7.8 8.1 8.2 10.8 8.5 6.2 3.2 1.6 1.6 1.3 1.6 3.8 0.7 2.6 1.8 2.0 1.9 2.9 2.7 4.2 3.3 2.3 1.3 1.6 1.3 4.7 6.8 6.9 5.3 3.5 2.8
14.5 14.7 15.9 15.5 12.9 14.7 8.9 8.3 7.0 6.0 7.2 7.5 9.0 10.3 7.2 7.4 8.2 6.8 3.1 6.6 4.1 3.6 6.0 3.9 6.2 5.5 4.6 4.6 2.4 5.4 3.4 8.3 7.6 8.4 7.9 9.9 8.3 10.1 10.6 5.7 5.6 4.4 3.4

GFSMA_prec_kuchsnow_201.txt.gz
Snowfall_Accumulation
0.0 0.0 0.0 0.0 0.0 0.0 0.0 0.0 0.0 0.0 0.0 0.0 0.0 0.0 0.0 0.0 0.0 0.0 0.0 0.0 0.0 0.0 0.0 0.0 0.0 0.0 0.0 0.0 0.0 0.0 0.0 0.0 0.0 0.0 0.0 0.0 0.0 0.0 0.0 0.0 0.0 0.0 0.0
0.0 0.0 0.0 0.0 0.0 0.0 0.0 0.0 0.0 0.0 0.0 0.0 0.0 0.0 0.0 0.0 0.0 0.0 0.0 0.0 0.0 0.0 0.0 0.0 0.0 0.0 0.0 0.0 0.0 0.0 0.0 0.0 0.0 0.0 0.0 0.0 0.0 0.0 0.0 0.0 0.0 0.0 0.0
0.0 0.0 0.0 0.0 0.0 0.0 0.0 0.0 0.0 0.0 0.0 0.0 0.0 0.0 0.0 0.0 0.0 0.0 0.0 0.0 0.0 0.0 0.0 0.0 0.0 0.0 0.0 0.0 0.0 0.0 0.0 0.0 0.0 0.0 0.0 0.0 0.0 0.0 0.0 0.0 0.0 0.0 0.0
0.0 0.0 0.0 0.0 0.0 0.0 0.0 0.0 0.0 0.0 0.0 0.0 0.0 0.0 0.0 0.0 0.0 0.0 0.0 0.0 0.0 0.0 0.0 0.0 0.0 0.0 0.0 0.0 0.0 0.0 0.0 0.0 0.0 0.0 0.0 0.0 0.0 0.0 0.0 0.0 0.0 0.0 0.0
0.0 0.0 0.0 0.0 0.0 0.0 0.0 0.0 0.0 0.0 0.0 0.0 0.0 0.0 0.0 0.0 0.0 0.0 0.0 0.0 0.0 0.0 0.0 0.0 0.0 0.0 0.0 0.0 0.0 0.0 0.0 0.0 0.0 0.0 0.0 0.0 0.0 0.0 0.0 0.0 0.0 0.0 0.0
0.0 0.0 0.0 0.0 0.0 0.0 0.0 0.0 0.0 0.0 0.0 0.0 0.0 0.0 0.0 0.0 0.0 0.0 0.0 0.0 0.0 0.0 0.0 0.0 0.0 0.0 0.0 0.0 0.0 0.0 0.0 0.0 0.0 0.0 0.0 0.0 0.0 0.0 0.0 0.0 0.0 0.0 0.0
0.0 0.0 0.0 0.0 0.0 0.0 0.0 0.0 0.0 0.0 0.0 0.0 0.0 0.0 0.0 0.0 0.0 0.0 0.0 0.0 0.0 0.0 0.0 0.0 0.0 0.0 0.0 0.0 0.0 0.0 0.0 0.0 0.0 0.0 0.0 0.0 0.0 0.0 0.0 0.0 0.0 0.0 0.0
0.0 0.0 0.0 0.0 0.0 0.0 0.0 0.0 0.0 0.0 0.0 0.0 0.0 0.0 0.0 0.0 0.0 0.0 0.0 0.0 0.0 0.0 0.0 0.0 0.0 0.0 0.0 0.0 0.0 0.0 0.0 0.0 0.0 0.0 0.0 0.0 0.0 0.0 0.0 0.0 0.0 0.0 0.0
0.0 0.0 0.0 0.0 0.0 0.0 0.0 0.0 0.0 0.0 0.1 0.0 0.0 0.1 0.2 0.0 0.0 0.0 0.0 0.0 0.0 0.0 0.0 0.0 0.0 0.0 0.0 0.0 0.0 0.0 0.0 0.0 0.0 0.0 0.0 0.0 0.0 0.0 0.0 0.0 0.0 0.0 0.0
0.0 0.0 0.0 0.0 0.0 0.0 0.0 0.0 0.0 0.0 0.1 0.1 0.0 0.0 0.0 0.1 0.4 0.0 0.0 0.0 0.0 0.0 0.0 0.0 0.0 0.0 0.0 0.0 0.0 0.0 0.0 0.0 0.0 0.0 0.0 0.0 0.0 0.0 0.0 0.0 0.0 0.0 0.0
0.0 0.0 0.0 0.0 0.0 0.0 0.0 0.0 0.0 0.0 0.0 0.1 0.1 0.1 0.0 0.0 0.0 0.2 0.0 0.0 0.0 0.0 0.0 0.0 0.0 0.0 0.0 0.0 0.0 0.0 0.0 0.0 0.0 0.0 0.0 0.0 0.0 0.0 0.0 0.0 0.0 0.0 0.0
0.0 0.0 0.0 0.0 0.0 0.0 0.1 0.0 0.1 0.1 0.1 0.1 0.1 0.1 0.2 0.4 0.2 0.4 0.4 0.0 0.0 0.0 0.0 0.0 0.0 0.0 0.0 0.0 0.0 0.0 0.0 0.0 0.0 0.0 0.0 0.0 0.0 0.0 0.0 0.0 0.0 0.0 0.0
0.0 0.0 0.0 0.0 0.0 0.1 0.1 0.1 0.0 0.1 0.2 0.2 0.3 0.2 0.1 0.1 0.1 0.1 0.4 0.1 0.1 0.0 0.0 0.0 0.0 0.0 0.0 0.0 0.0 0.0 0.0 0.0 0.0 0.0 0.0 0.0 0.0 0.0 0.0 0.0 0.0 0.0 0.0
0.2 0.1 0.2 0.0 0.0 0.2 0.0 0.1 0.1 0.1 0.2 0.4 0.2 0.2 0.2 0.2 0.0 0.1 0.4 0.6 0.6 0.0 0.0 0.0 0.0 0.0 0.0 0.0 0.0 0.0 0.0 0.0 0.0 0.0 0.0 0.0 0.0 0.0 0.0 0.0 0.0 0.0 0.0
0.2 0.2 0.1 0.1 0.1 0.1 0.1 0.1 0.2 0.3 0.3 0.6 0.6 0.5 0.4 0.3 0.2 0.0 0.1 0.3 2.4 3.3 0.5 0.0 0.1 0.0 0.0 0.0 0.0 0.0 0.1 0.0 0.0 0.0 0.1 0.0 0.0 0.0 0.0 0.0 0.0 0.0 0.0
0.9 0.7 0.4 0.4 0.3 0.4 0.2 0.2 0.4 0.6 0.5 0.5 0.6 0.6 0.5 0.5 0.4 0.5 0.3 0.1 0.5 1.7 1.7 0.2 0.2 0.2 0.1 0.0 0.1 0.1 0.2 0.7 0.6 0.6 0.2 0.3 0.0 0.0 0.0 0.0 0.0 0.0 0.0
1.0 0.8 1.0 1.0 1.2 1.2 1.1 1.0 0.8 0.8 0.9 0.6 0.4 1.0 0.9 0.6 0.8 0.9 0.7 0.5 0.3 0.7 1.4 1.0 0.4 0.3 0.3 0.3 0.3 0.1 0.2 0.3 2.3 1.6 0.7 0.2 0.1 0.0 0.0 0.0 0.0 0.0 0.0
1.3 1.4 1.3 1.1 1.2 1.4 1.4 1.7 1.8 1.6 1.7 1.4 1.2 1.0 1.1 0.8 1.3 1.7 1.6 1.4 1.2 1.1 1.0 2.5 1.4 1.0 0.9 1.3 1.9 0.9 0.5 0.1 0.5 1.1 1.5 1.3 0.3 0.2 0.0 0.1 0.2 0.0 0.1
2.1 1.4 1.6 2.1 1.8 1.7 1.5 1.6 1.8 1.7 1.7 1.8 2.0 2.0 2.2 1.3 1.0 2.1 3.1 3.5 2.0 0.9 1.5 2.1 3.0 1.8 2.0 2.1 2.3 2.1 0.6 0.4 0.0 0.4 1.2 1.9 2.1 1.4 0.8 0.4 0.2 0.0 0.0
0.9 1.1 1.6 2.4 2.7 1.9 1.4 1.7 1.5 1.5 1.7 2.5 2.6 2.3 2.7 2.3 2.8 2.3 2.5 4.2 3.8 3.2 2.7 3.2 3.3 4.1 3.6 3.4 1.8 2.2 2.3 1.4 0.9 0.1 0.1 0.4 0.3 0.3 0.7 1.3 1.8 0.5 0.4
1.2 0.3 0.0 0.2 0.3 0.9 1.8 1.5 1.5 1.3 1.0 1.9 2.1 1.3 1.6 1.9 1.8 2.5 3.0 3.5 3.1 3.5 3.5 5.3 6.6 6.8 6.3 6.2 5.6 3.4 2.5 2.5 1.5 1.1 0.3 0.0 0.0 0.1 0.1 0.1 1.0 1.6 2.0
1.3 1.7 2.2 1.9 1.5 1.7 0.6 0.7 1.1 1.3 2.4 2.3 1.1 1.2 1.0 0.8 0.9 1.1 1.6 1.4 1.4 2.3 3.8 4.3 5.2 7.0 7.9 5.9 5.4 4.3 3.5 3.6 3.0 1.4 1.9 1.1 0.0 0.1 0.1 0.1 0.4 0.5 0.8
5.7 4.3 5.6 3.7 4.7 4.9 2.9 1.4 1.1 1.5 1.5 1.5 0.7 0.8 0.8 0.5 0.1 0.2 0.0 0.0 0.1 0.2 0.7 1.0 2.7 2.2 3.4 3.6 2.5 1.8 1.7 1.7 1.8 0.5 0.8 1.6 0.3 0.1 0.0 0.0 0.2 0.2 0.2
9.0 8.9 9.6 10.2 9.7 11.6 7.4 10.7 12.0 7.2 6.7 7.6 7.5 5.6 2.1 1.1 1.6 0.5 0.8 0.5 0.1 0.2 0.1 0.1 0.3 0.3 1.1 0.1 0.2 0.1 2.5 2.1 3.1 1.4 1.2 2.8 1.0 1.9 1.0 0.6 0.8 0.3 0.2
17.8 16.7 14.2 12.4 12.5 9.0 7.0 4.6 6.4 10.7 15.9 14.9 7.8 8.1 8.2 10.8 8.5 6.2 3.2 1.6 1.6 1.3 1.6 3.8 0.7 2.6 1.8 2.0 2.0 3.0 2.7 4.2 3.3 2.3 1.3 1.6 1.3 4.7 6.8 6.9 5.3 3.5 2.8
14.8 14.9 15.9 15.5 13.1 14.7 9.3 8.7 7.5 6.5 7.9 8.2 9.0 10.3 7.2 7.4 8.2 6.8 3.1 6.6 4.1 3.6 6.0 3.9 6.2 5.5 4.6 4.7 2.4 5.4 3.4 8.3 7.6 8.4 7.9 9.9 8.3 10.1 10.6 5.7 5.6 4.4 3.4

GFSMA_prec_kuchsnow_204.txt.gz
Snowfall_Accumulation
0.0 0.0 0.0 0.0 0.0 0.0 0.0 0.0 0.0 0.0 0.0 0.0 0.0 0.0 0.0 0.0 0.0 0.0 0.0 0.0 0.0 0.0 0.0 0.0 0.0 0.0 0.0 0.0 0.0 0.0 0.0 0.0 0.0 0.0 0.0 0.0 0.0 0.0 0.0 0.0 0.0 0.0 0.0
0.0 0.0 0.0 0.0 0.0 0.0 0.0 0.0 0.0 0.0 0.0 0.0 0.0 0.0 0.0 0.0 0.0 0.0 0.0 0.0 0.0 0.0 0.0 0.0 0.0 0.0 0.0 0.0 0.0 0.0 0.0 0.0 0.0 0.0 0.0 0.0 0.0 0.0 0.0 0.0 0.0 0.0 0.0
0.0 0.0 0.0 0.0 0.0 0.0 0.0 0.0 0.0 0.0 0.0 0.0 0.0 0.0 0.0 0.0 0.0 0.0 0.0 0.0 0.0 0.0 0.0 0.0 0.0 0.0 0.0 0.0 0.0 0.0 0.0 0.0 0.0 0.0 0.0 0.0 0.0 0.0 0.0 0.0 0.0 0.0 0.0
0.0 0.0 0.0 0.0 0.0 0.0 0.0 0.0 0.0 0.0 0.0 0.0 0.0 0.0 0.0 0.0 0.0 0.0 0.0 0.0 0.0 0.0 0.0 0.0 0.0 0.0 0.0 0.0 0.0 0.0 0.0 0.0 0.0 0.0 0.0 0.0 0.0 0.0 0.0 0.0 0.0 0.0 0.0
0.0 0.0 0.0 0.0 0.0 0.0 0.0 0.0 0.0 0.0 0.0 0.0 0.0 0.0 0.0 0.0 0.0 0.0 0.0 0.0 0.0 0.0 0.0 0.0 0.0 0.0 0.0 0.0 0.0 0.0 0.0 0.0 0.0 0.0 0.0 0.0 0.0 0.0 0.0 0.0 0.0 0.0 0.0
0.0 0.0 0.0 0.0 0.0 0.0 0.0 0.0 0.0 0.0 0.0 0.0 0.0 0.0 0.0 0.0 0.0 0.0 0.0 0.0 0.0 0.0 0.0 0.0 0.0 0.0 0.0 0.0 0.0 0.0 0.0 0.0 0.0 0.0 0.0 0.0 0.0 0.0 0.0 0.0 0.0 0.0 0.0
0.0 0.0 0.0 0.0 0.0 0.0 0.0 0.0 0.0 0.0 0.0 0.0 0.0 0.0 0.0 0.0 0.0 0.0 0.0 0.0 0.0 0.0 0.0 0.0 0.0 0.0 0.0 0.0 0.0 0.0 0.0 0.0 0.0 0.0 0.0 0.0 0.0 0.0 0.0 0.0 0.0 0.0 0.0
0.0 0.0 0.0 0.0 0.0 0.0 0.0 0.0 0.0 0.0 0.0 0.0 0.0 0.0 0.0 0.0 0.0 0.0 0.0 0.0 0.0 0.0 0.0 0.0 0.0 0.0 0.0 0.0 0.0 0.0 0.0 0.0 0.0 0.0 0.0 0.0 0.0 0.0 0.0 0.0 0.0 0.0 0.0
0.0 0.0 0.0 0.0 0.0 0.0 0.0 0.0 0.0 0.0 0.1 0.0 0.0 0.1 0.2 0.0 0.0 0.0 0.0 0.0 0.0 0.0 0.0 0.0 0.0 0.0 0.0 0.0 0.0 0.0 0.0 0.0 0.0 0.0 0.0 0.0 0.0 0.0 0.0 0.0 0.0 0.0 0.0
0.0 0.0 0.0 0.0 0.0 0.0 0.0 0.0 0.0 0.0 0.1 0.1 0.0 0.0 0.0 0.1 0.4 0.0 0.0 0.0 0.0 0.0 0.0 0.0 0.0 0.0 0.0 0.0 0.0 0.0 0.0 0.0 0.0 0.0 0.0 0.0 0.0 0.0 0.0 0.0 0.0 0.0 0.0
0.0 0.0 0.0 0.0 0.0 0.0 0.0 0.0 0.0 0.0 0.0 0.1 0.1 0.1 0.0 0.0 0.0 0.2 0.0 0.0 0.0 0.0 0.0 0.0 0.0 0.0 0.0 0.0 0.0 0.0 0.0 0.0 0.0 0.0 0.0 0.0 0.0 0.0 0.0 0.0 0.0 0.0 0.0
0.0 0.0 0.0 0.0 0.0 0.0 0.1 0.0 0.1 0.1 0.1 0.1 0.1 0.1 0.2 0.4 0.2 0.4 0.4 0.0 0.0 0.0 0.0 0.0 0.0 0.0 0.0 0.0 0.0 0.0 0.0 0.0 0.0 0.0 0.0 0.0 0.0 0.0 0.0 0.0 0.0 0.0 0.0
0.0 0.0 0.0 0.0 0.0 0.1 0.1 0.1 0.0 0.1 0.2 0.2 0.3 0.2 0.1 0.1 0.1 0.1 0.4 0.1 0.1 0.0 0.0 0.0 0.0 0.0 0.0 0.0 0.0 0.0 0.0 0.0 0.0 0.0 0.0 0.0 0.0 0.0 0.0 0.0 0.0 0.0 0.0
0.2 0.1 0.2 0.0 0.0 0.2 0.0 0.1 0.1 0.1 0.2 0.4 0.2 0.2 0.2 0.2 0.0 0.1 0.4 0.6 0.6 0.0 0.0 0.0 0.0 0.0 0.0 0.0 0.0 0.0 0.0 0.0 0.0 0.0 0.0 0.0 0.0 0.0 0.0 0.0 0.0 0.0 0.0
0.2 0.2 0.1 0.1 0.1 0.1 0.1 0.1 0.2 0.3 0.3 0.6 0.6 0.5 0.4 0.3 0.2 0.0 0.1 0.3 2.4 3.3 0.5 0.0 0.1 0.0 0.0 0.0 0.0 0.0 0.1 0.0 0.0 0.0 0.1 0.0 0.0 0.0 0.0 0.0 0.0 0.0 0.0
0.9 0.7 0.4 0.4 0.3 0.4 0.2 0.2 0.4 0.6 0.5 0.5 0.6 0.6 0.5 0.5 0.4 0.5 0.3 0.1 0.5 1.7 1.7 0.2 0.2 0.2 0.1 0.0 0.1 0.1 0.2 0.7 0.6 0.6 0.2 0.3 0.0 0.0 0.0 0.0 0.0 0.0 0.0
1.0 0.8 1.0 1.0 1.2 1.2 1.1 1.0 0.8 0.8 0.9 0.6 0.4 1.0 0.9 0.6 0.8 0.9 0.7 0.5 0.3 0.7 1.4 1.0 0.4 0.3 0.3 0.3 0.3 0.1 0.2 0.3 2.3 1.6 0.7 0.2 0.1 0.0 0.0 0.0 0.0 0.0 0.0
1.3 1.4 1.3 1.1 1.2 1.4 1.4 1.7 1.8 1.6 1.7 1.4 1.2 1.0 1.1 0.8 1.3 1.7 1.6 1.4 1.2 1.1 1.0 2.5 1.4 1.0 0.9 1.3 1.9 0.9 0.5 0.1 0.5 1.1 1.5 1.3 0.3 0.2 0.0 0.1 0.2 0.0 0.1
2.1 1.4 1.6 2.1 1.8 1.7 1.5 1.6 1.8 1.7 1.7 1.8 2.0 2.0 2.2 1.3 1.0 2.1 3.1 3.5 2.0 0.9 1.5 2.1 3.0 1.8 2.0 2.1 2.3 2.1 0.6 0.4 0.0 0.4 1.2 1.9 2.1 1.4 0.8 0.4 0.2 0.0 0.0
0.9 1.1 1.6 2.4 2.7 1.9 1.4 1.7 1.5 1.5 1.7 2.5 2.6 2.3 2.7 2.3 2.8 2.3 2.5 4.2 3.8 3.2 2.7 3.2 3.3 4.1 3.6 6.4 1.8 3.8 4.0 2.2 1.1 0.1 0.1 0.4 0.3 0.3 0.7 1.3 1.8 0.5 0.4
1.2 0.3 0.0 0.2 0.3 0.9 1.8 1.5 1.5 1.3 1.0 1.9 2.1 1.3 1.6 1.9 1.8 2.5 3.0 3.5 3.1 3.5 3.5 5.3 6.6 8.3 8.9 9.4 8.9 5.6 3.8 3.4 2.0 1.2 0.4 0.0 0.0 0.1 0.1 0.1 1.0 1.6 2.0
1.3 1.7 2.2 1.9 1.5 1.7 0.6 0.7 1.1 1.4 2.4 2.3 1.1 1.2 1.0 0.8 0.9 1.1 1.6 1.4 1.4 2.3 3.8 4.3 5.2 7.0 9.5 7.4 6.7 5.5 5.3 5.7 5.1 1.9 2.1 1.3 0.1 0.1 0.1 0.1 0.4 0.5 0.8
5.7 4.3 5.6 3.7 4.7 4.9 2.9 1.4 1.1 1.5 1.7 1.5 0.7 0.8 0.8 0.5 0.1 0.2 0.0 0.0 0.1 0.2 0.7 1.0 2.7 2.9 4.8 5.2 4.3 4.1 3.4 2.6 2.5 1.0 1.1 2.0 0.5 0.1 0.0 0.0 0.2 0.2 0.2
9.0 9.0 9.6 10.2 9.7 11.6 7.4 10.7 12.0 7.2 7.0 7.6 7.5 5.6 2.1 1.1 1.6 0.5 0.8 0.5 0.1 0.2 0.1 0.1 0.3 0.3 1.8 1.1 0.2 0.1 3.5 3.0 3.8 2.1 1.5 3.2 1.1 1.9 1.0 0.6 0.8 0.3 0.2
17.8 16.7 14.2 12.4 12.5 9.0 7.0 4.7 6.4 10.7 16.3 15.6 7.8 8.1 8.2 10.8 8.5 6.2 3.2 1.6 1.6 1.3 1.6 3.8 0.7 2.6 2.5 2.6 2.8 4.6 5.4 5.5 4.2 2.9 1.4 1.6 1.4 4.7 6.8 6.9 5.3 3.5 2.8
14.8 14.9 15.9 15.5 13.1 14.7 9.3 8.7 7.5 7.0 8.5 8.7 9.6 10.3 7.2 7.4 8.2 6.8 3.1 6.6 5.7 5.1 7.3 5.6 8.0 6.9 6.1 5.9 3.0 5.6 3.7 8.5 7.7 8.6 7.9 9.9 8.3 10.1 10.7 5.7 5.6 4.4 3.4

GFSMA_prec_kuchsnow_207.txt.gz
Snowfall_Accumulation
0.0 0.0 0.0 0.0 0.0 0.0 0.0 0.0 0.0 0.0 0.0 0.0 0.0 0.0 0.0 0.0 0.0 0.0 0.0 0.0 0.0 0.0 0.0 0.0 0.0 0.0 0.0 0.0 0.0 0.0 0.0 0.0 0.0 0.0 0.0 0.0 0.0 0.0 0.0 0.0 0.0 0.0 0.0
0.0 0.0 0.0 0.0 0.0 0.0 0.0 0.0 0.0 0.0 0.0 0.0 0.0 0.0 0.0 0.0 0.0 0.0 0.0 0.0 0.0 0.0 0.0 0.0 0.0 0.0 0.0 0.0 0.0 0.0 0.0 0.0 0.0 0.0 0.0 0.0 0.0 0.0 0.0 0.0 0.0 0.0 0.0
0.0 0.0 0.0 0.0 0.0 0.0 0.0 0.0 0.0 0.0 0.0 0.0 0.0 0.0 0.0 0.0 0.0 0.0 0.0 0.0 0.0 0.0 0.0 0.0 0.0 0.0 0.0 0.0 0.0 0.0 0.0 0.0 0.0 0.0 0.0 0.0 0.0 0.0 0.0 0.0 0.0 0.0 0.0
0.0 0.0 0.0 0.0 0.0 0.0 0.0 0.0 0.0 0.0 0.0 0.0 0.0 0.0 0.0 0.0 0.0 0.0 0.0 0.0 0.0 0.0 0.0 0.0 0.0 0.0 0.0 0.0 0.0 0.0 0.0 0.0 0.0 0.0 0.0 0.0 0.0 0.0 0.0 0.0 0.0 0.0 0.0
0.0 0.0 0.0 0.0 0.0 0.0 0.0 0.0 0.0 0.0 0.0 0.0 0.0 0.0 0.0 0.0 0.0 0.0 0.0 0.0 0.0 0.0 0.0 0.0 0.0 0.0 0.0 0.0 0.0 0.0 0.0 0.0 0.0 0.0 0.0 0.0 0.0 0.0 0.0 0.0 0.0 0.0 0.0
0.0 0.0 0.0 0.0 0.0 0.0 0.0 0.0 0.0 0.0 0.0 0.0 0.0 0.0 0.0 0.0 0.0 0.0 0.0 0.0 0.0 0.0 0.0 0.0 0.0 0.0 0.0 0.0 0.0 0.0 0.0 0.0 0.0 0.0 0.0 0.0 0.0 0.0 0.0 0.0 0.0 0.0 0.0
0.0 0.0 0.0 0.0 0.0 0.0 0.0 0.0 0.0 0.0 0.0 0.0 0.0 0.0 0.0 0.0 0.0 0.0 0.0 0.0 0.0 0.0 0.0 0.0 0.0 0.0 0.0 0.0 0.0 0.0 0.0 0.0 0.0 0.0 0.0 0.0 0.0 0.0 0.0 0.0 0.0 0.0 0.0
0.0 0.0 0.0 0.0 0.0 0.0 0.0 0.0 0.0 0.0 0.0 0.0 0.0 0.0 0.0 0.0 0.0 0.0 0.0 0.0 0.0 0.0 0.0 0.0 0.0 0.0 0.0 0.0 0.0 0.0 0.0 0.0 0.0 0.0 0.0 0.0 0.0 0.0 0.0 0.0 0.0 0.0 0.0
0.0 0.0 0.0 0.0 0.0 0.0 0.0 0.0 0.0 0.0 0.1 0.0 0.0 0.1 0.2 0.0 0.0 0.0 0.0 0.0 0.0 0.0 0.0 0.0 0.0 0.0 0.0 0.0 0.0 0.0 0.0 0.0 0.0 0.0 0.0 0.0 0.0 0.0 0.0 0.0 0.0 0.0 0.0
0.0 0.0 0.0 0.0 0.0 0.0 0.0 0.0 0.0 0.0 0.1 0.1 0.0 0.0 0.0 0.1 0.4 0.0 0.0 0.0 0.0 0.0 0.0 0.0 0.0 0.0 0.0 0.0 0.0 0.0 0.0 0.0 0.0 0.0 0.0 0.0 0.0 0.0 0.0 0.0 0.0 0.0 0.0
0.0 0.0 0.0 0.0 0.0 0.0 0.0 0.0 0.0 0.0 0.0 0.1 0.1 0.1 0.0 0.0 0.0 0.2 0.0 0.0 0.0 0.0 0.0 0.0 0.0 0.0 0.0 0.0 0.0 0.0 0.0 0.0 0.0 0.0 0.0 0.0 0.0 0.0 0.0 0.0 0.0 0.0 0.0
0.0 0.0 0.0 0.0 0.0 0.0 0.1 0.0 0.1 0.1 0.1 0.1 0.1 0.1 0.2 0.4 0.2 0.4 0.4 0.0 0.0 0.0 0.0 0.0 0.0 0.0 0.0 0.0 0.0 0.0 0.0 0.0 0.0 0.0 0.0 0.0 0.0 0.0 0.0 0.0 0.0 0.0 0.0
0.0 0.0 0.0 0.0 0.0 0.1 0.1 0.1 0.0 0.1 0.2 0.2 0.3 0.2 0.1 0.1 0.1 0.1 0.4 0.1 0.1 0.0 0.0 0.0 0.0 0.0 0.0 0.0 0.0 0.0 0.0 0.0 0.0 0.0 0.0 0.0 0.0 0.0 0.0 0.0 0.0 0.0 0.0
0.2 0.1 0.2 0.0 0.0 0.2 0.0 0.1 0.1 0.1 0.2 0.4 0.2 0.2 0.2 0.2 0.0 0.1 0.4 0.6 0.6 0.0 0.0 0.0 0.0 0.0 0.0 0.0 0.0 0.0 0.0 0.0 0.0 0.0 0.0 0.0 0.0 0.0 0.0 0.0 0.0 0.0 0.0
0.2 0.2 0.1 0.1 0.1 0.1 0.1 0.1 0.2 0.3 0.3 0.6 0.6 0.5 0.4 0.3 0.2 0.0 0.1 0.3 2.4 3.3 0.5 0.0 0.1 0.0 0.0 0.0 0.0 0.0 0.1 0.0 0.0 0.0 0.1 0.0 0.0 0.0 0.0 0.0 0.0 0.0 0.0
0.9 0.7 0.4 0.4 0.3 0.4 0.2 0.2 0.4 0.6 0.5 0.5 0.6 0.6 0.5 0.5 0.4 0.5 0.3 0.1 0.5 1.7 1.7 0.2 0.2 0.2 0.1 0.0 0.1 0.1 0.2 0.7 0.6 0.6 0.2 0.3 0.0 0.0 0.0 0.0 0.0 0.0 0.0
1.0 0.8 1.0 1.0 1.2 1.2 1.1 1.0 0.8 0.8 0.9 0.6 0.4 1.0 0.9 0.6 0.8 0.9 0.7 0.5 0.3 0.7 1.4 1.0 0.4 0.3 0.3 0.3 0.3 0.1 0.2 0.3 2.3 1.6 0.7 0.2 0.1 0.0 0.0 0.0 0.0 0.0 0.0
1.3 1.4 1.3 1.1 1.2 1.4 1.4 1.7 1.8 1.6 1.7 1.4 1.2 1.0 1.1 0.8 1.3 1.7 1.6 1.4 1.2 1.1 1.0 2.5 1.4 1.0 0.9 1.3 1.9 0.9 0.5 0.1 0.5 1.1 1.5 1.3 0.3 0.2 0.0 0.1 0.2 0.0 0.1
2.1 1.4 1.6 2.1 1.8 1.7 1.5 1.6 1.8 1.7 1.7 1.8 2.0 2.0 2.2 1.3 1.0 2.1 3.1 3.5 2.0 0.9 1.5 2.1 3.0 1.8 2.0 2.1 2.3 2.1 0.6 0.4 0.0 0.4 1.2 1.9 2.1 1.4 0.8 0.4 0.2 0.0 0.0
0.9 1.1 1.6 2.4 2.7 1.9 1.4 1.7 1.5 1.5 1.7 2.5 2.6 2.3 2.7 2.3 2.8 2.3 2.5 4.2 3.8 3.2 2.7 3.2 3.3 4.1 3.6 6.4 1.8 3.8 6.5 2.2 1.1 0.1 0.1 0.4 0.3 0.3 0.7 1.3 1.8 0.5 0.4
1.2 0.3 0.0 0.2 0.3 0.9 1.8 1.5 1.5 1.3 1.0 1.9 2.1 1.3 1.6 1.9 1.8 2.5 3.0 3.5 3.1 3.5 3.5 5.3 6.6 8.3 8.9 10.2 10.0 6.5 4.8 5.1 3.9 1.9 0.9 0.0 0.1 0.1 0.1 0.1 1.0 1.6 2.0
1.3 1.7 2.2 1.9 1.5 1.7 0.6 0.7 1.1 1.4 2.4 2.3 1.2 1.2 1.0 0.8 0.9 1.1 1.6 1.4 1.4 2.3 3.8 4.3 5.2 7.0 9.5 7.4 6.7 5.5 6.4 7.3 7.8 3.0 2.9 2.3 0.3 0.2 0.2 0.1 0.4 0.5 0.8
5.7 4.3 5.6 3.7 4.7 4.9 2.9 1.4 1.1 1.5 1.7 1.5 0.7 0.8 0.9 0.5 0.1 0.2 0.0 0.0 0.1 0.2 0.7 1.0 2.7 2.9 4.8 5.2 4.3 4.9 4.0 2.9 2.8 1.8 1.7 3.7 1.1 0.6 0.2 0.0 0.2 0.2 0.2
9.0 9.0 9.6 10.2 9.7 11.6 7.4 10.7 12.0 7.2 7.0 7.6 7.5 5.7 2.2 1.1 1.6 0.5 0.8 0.5 0.1 0.2 0.1 0.1 0.3 0.3 1.8 1.1 0.2 0.1 4.2 4.3 5.0 3.2 2.2 5.0 2.0 2.4 1.1 0.6 0.8 0.3 0.2
17.8 16.7 14.2 12.4 12.5 9.0 7.0 4.7 6.4 10.7 16.3 15.6 7.9 8.2 8.2 10.8 8.5 6.2 3.2 1.6 1.6 1.3 1.6 3.8 0.7 2.6 2.5 2.6 2.8 7.3 8.9 7.9 6.7 5.4 2.5 2.5 2.4 5.2 6.9 7.1 5.4 3.5 2.8
14.8 14.9 15.9 15.5 13.1 14.7 9.3 8.7 7.5 7.0 8.5 8.8 9.7 10.5 7.5 7.4 8.2 6.8 3.1 6.6 5.7 5.1 7.3 7.8 10.2 9.1 8.3 8.0 4.2 5.6 4.2 9.1 8.6 10.3 8.8 10.7 9.3 10.6 11.0 5.8 5.6 4.5 3.4

GFSMA_prec_kuchsnow_210.txt.gz
Snowfall_Accumulation
0.0 0.0 0.0 0.0 0.0 0.0 0.0 0.0 0.0 0.0 0.0 0.0 0.0 0.0 0.0 0.0 0.0 0.0 0.0 0.0 0.0 0.0 0.0 0.0 0.0 0.0 0.0 0.0 0.0 0.0 0.0 0.0 0.0 0.0 0.0 0.0 0.0 0.0 0.0 0.0 0.0 0.0 0.0
0.0 0.0 0.0 0.0 0.0 0.0 0.0 0.0 0.0 0.0 0.0 0.0 0.0 0.0 0.0 0.0 0.0 0.0 0.0 0.0 0.0 0.0 0.0 0.0 0.0 0.0 0.0 0.0 0.0 0.0 0.0 0.0 0.0 0.0 0.0 0.0 0.0 0.0 0.0 0.0 0.0 0.0 0.0
0.0 0.0 0.0 0.0 0.0 0.0 0.0 0.0 0.0 0.0 0.0 0.0 0.0 0.0 0.0 0.0 0.0 0.0 0.0 0.0 0.0 0.0 0.0 0.0 0.0 0.0 0.0 0.0 0.0 0.0 0.0 0.0 0.0 0.0 0.0 0.0 0.0 0.0 0.0 0.0 0.0 0.0 0.0
0.0 0.0 0.0 0.0 0.0 0.0 0.0 0.0 0.0 0.0 0.0 0.0 0.0 0.0 0.0 0.0 0.0 0.0 0.0 0.0 0.0 0.0 0.0 0.0 0.0 0.0 0.0 0.0 0.0 0.0 0.0 0.0 0.0 0.0 0.0 0.0 0.0 0.0 0.0 0.0 0.0 0.0 0.0
0.0 0.0 0.0 0.0 0.0 0.0 0.0 0.0 0.0 0.0 0.0 0.0 0.0 0.0 0.0 0.0 0.0 0.0 0.0 0.0 0.0 0.0 0.0 0.0 0.0 0.0 0.0 0.0 0.0 0.0 0.0 0.0 0.0 0.0 0.0 0.0 0.0 0.0 0.0 0.0 0.0 0.0 0.0
0.0 0.0 0.0 0.0 0.0 0.0 0.0 0.0 0.0 0.0 0.0 0.0 0.0 0.0 0.0 0.0 0.0 0.0 0.0 0.0 0.0 0.0 0.0 0.0 0.0 0.0 0.0 0.0 0.0 0.0 0.0 0.0 0.0 0.0 0.0 0.0 0.0 0.0 0.0 0.0 0.0 0.0 0.0
0.0 0.0 0.0 0.0 0.0 0.0 0.0 0.0 0.0 0.0 0.0 0.0 0.0 0.0 0.0 0.0 0.0 0.0 0.0 0.0 0.0 0.0 0.0 0.0 0.0 0.0 0.0 0.0 0.0 0.0 0.0 0.0 0.0 0.0 0.0 0.0 0.0 0.0 0.0 0.0 0.0 0.0 0.0
0.0 0.0 0.0 0.0 0.0 0.0 0.0 0.0 0.0 0.0 0.0 0.0 0.0 0.0 0.0 0.0 0.0 0.0 0.0 0.0 0.0 0.0 0.0 0.0 0.0 0.0 0.0 0.0 0.0 0.0 0.0 0.0 0.0 0.0 0.0 0.0 0.0 0.0 0.0 0.0 0.0 0.0 0.0
0.0 0.0 0.0 0.0 0.0 0.0 0.0 0.0 0.0 0.0 0.1 0.0 0.0 0.1 0.2 0.0 0.0 0.0 0.0 0.0 0.0 0.0 0.0 0.0 0.0 0.0 0.0 0.0 0.0 0.0 0.0 0.0 0.0 0.0 0.0 0.0 0.0 0.0 0.0 0.0 0.0 0.0 0.0
0.0 0.0 0.0 0.0 0.0 0.0 0.0 0.0 0.0 0.0 0.1 0.1 0.0 0.0 0.0 0.1 0.4 0.0 0.0 0.0 0.0 0.0 0.0 0.0 0.0 0.0 0.0 0.0 0.0 0.0 0.0 0.0 0.0 0.0 0.0 0.0 0.0 0.0 0.0 0.0 0.0 0.0 0.0
0.0 0.0 0.0 0.0 0.0 0.0 0.0 0.0 0.0 0.0 0.0 0.1 0.1 0.1 0.0 0.0 0.0 0.2 0.0 0.0 0.0 0.0 0.0 0.0 0.0 0.0 0.0 0.0 0.0 0.0 0.0 0.0 0.0 0.0 0.0 0.0 0.0 0.0 0.0 0.0 0.0 0.0 0.0
0.0 0.0 0.0 0.0 0.0 0.0 0.1 0.0 0.1 0.1 0.1 0.1 0.1 0.1 0.2 0.4 0.2 0.4 0.4 0.0 0.0 0.0 0.0 0.0 0.0 0.0 0.0 0.0 0.0 0.0 0.0 0.0 0.0 0.0 0.0 0.0 0.0 0.0 0.0 0.0 0.0 0.0 0.0
0.0 0.0 0.0 0.0 0.0 0.1 0.1 0.1 0.0 0.1 0.2 0.2 0.3 0.2 0.1 0.1 0.1 0.1 0.4 0.1 0.1 0.0 0.0 0.0 0.0 0.0 0.0 0.0 0.0 0.0 0.0 0.0 0.0 0.0 0.0 0.0 0.0 0.0 0.0 0.0 0.0 0.0 0.0
0.2 0.1 0.2 0.0 0.0 0.2 0.0 0.1 0.1 0.1 0.2 0.4 0.2 0.2 0.2 0.2 0.0 0.1 0.4 0.6 0.6 0.0 0.0 0.0 0.0 0.0 0.0 0.0 0.0 0.0 0.0 0.0 0.0 0.0 0.0 0.0 0.0 0.0 0.0 0.0 0.0 0.0 0.0
0.2 0.2 0.1 0.1 0.1 0.1 0.1 0.1 0.2 0.3 0.3 0.6 0.6 0.5 0.4 0.3 0.2 0.0 0.1 0.3 2.4 3.3 0.5 0.0 0.1 0.0 0.0 0.0 0.0 0.0 0.1 0.0 0.0 0.0 0.1 0.0 0.0 0.0 0.0 0.0 0.0 0.0 0.0
0.9 0.7 0.4 0.4 0.3 0.4 0.2 0.2 0.4 0.6 0.5 0.5 0.6 0.6 0.5 0.5 0.4 0.5 0.3 0.1 0.5 1.7 1.7 0.2 0.2 0.2 0.1 0.0 0.1 0.1 0.2 0.7 0.6 0.6 0.2 0.3 0.0 0.0 0.0 0.0 0.0 0.0 0.0
1.0 0.8 1.0 1.0 1.2 1.2 1.1 1.0 0.8 0.8 0.9 0.6 0.4 1.0 0.9 0.6 0.8 0.9 0.7 0.5 0.3 0.7 1.4 1.0 0.4 0.3 0.3 0.3 0.3 0.1 0.2 0.3 2.3 1.6 0.7 0.2 0.1 0.0 0.0 0.0 0.0 0.0 0.0
1.3 1.4 1.3 1.1 1.2 1.4 1.4 1.7 1.8 1.6 1.7 1.4 1.2 1.0 1.1 0.8 1.3 1.7 1.6 1.4 1.2 1.1 1.0 2.5 1.4 1.0 0.9 1.3 1.9 0.9 0.5 0.1 0.5 1.1 1.5 1.3 0.3 0.2 0.0 0.1 0.2 0.0 0.1
2.1 1.4 1.6 2.1 1.8 1.7 1.5 1.6 1.8 1.7 1.7 1.8 2.0 2.0 2.2 1.3 1.0 2.1 3.1 3.5 2.0 0.9 1.5 2.1 3.0 1.8 2.0 2.1 2.3 2.1 0.6 0.4 0.0 0.4 1.2 1.9 2.1 1.4 0.8 0.4 0.2 0.0 0.0
0.9 1.1 1.6 2.4 2.7 1.9 1.4 1.7 1.5 1.5 1.7 2.5 2.6 2.3 2.7 2.3 2.8 2.3 2.5 4.2 3.8 3.2 2.7 3.2 3.3 4.1 3.6 6.4 1.8 3.8 6.5 2.2 1.1 0.1 0.1 0.4 0.3 0.3 0.7 1.3 1.8 0.5 0.4
1.2 0.3 0.0 0.2 0.3 0.9 1.8 1.5 1.5 1.3 1.0 1.9 2.1 1.3 1.6 1.9 1.8 2.5 3.0 3.5 3.1 3.5 3.5 5.3 6.6 8.3 8.9 10.2 10.0 6.5 4.8 5.1 3.9 1.9 0.9 0.0 0.1 0.1 0.1 0.1 1.0 1.6 2.0
1.3 1.7 2.2 1.9 1.5 1.7 0.6 0.7 1.1 1.4 2.4 2.3 1.2 1.2 1.0 0.8 0.9 1.1 1.6 1.4 1.4 2.3 3.8 4.3 5.2 7.0 9.5 7.4 6.7 5.5 6.8 8.3 10.3 4.9 4.3 4.3 0.3 0.9 0.2 0.1 0.4 0.5 0.8
5.7 4.3 5.6 3.7 4.7 4.9 2.9 1.4 1.1 1.5 1.7 1.5 0.7 0.8 0.9 0.5 0.1 0.2 0.0 0.0 0.1 0.2 0.7 1.0 2.7 2.9 4.8 5.2 4.3 4.9 4.0 3.0 2.9 2.6 2.3 5.5 2.0 1.7 0.5 0.1 0.3 0.3 0.2
9.0 9.0 9.6 10.2 9.7 11.6 7.4 10.7 12.0 7.2 7.0 7.6 7.5 5.7 2.3 1.2 1.6 0.5 0.8 0.5 0.1 0.2 0.1 0.1 0.3 0.3 1.8 1.1 0.2 0.1 4.2 4.3 6.2 4.2 2.6 7.0 3.5 3.9 1.6 0.9 1.0 0.4 0.3
17.8 16.7 14.2 12.4 12.5 9.0 7.0 4.7 6.4 10.7 16.3 15.6 7.9 8.2 8.3 10.8 8.5 6.2 3.2 1.6 1.6 1.3 1.6 3.8 0.7 2.6 2.5 2.6 2.8 7.3 11.3 10.9 9.7 8.0 3.8 3.9 3.9 6.5 7.8 7.8 5.6 3.7 2.9
14.8 14.9 15.9 15.5 13.1 14.7 9.3 8.7 7.5 7.0 8.5 8.8 9.7 10.5 7.5 7.5 8.3 6.8 3.1 6.6 5.7 5.1 7.3 7.8 10.2 9.1 8.3 8.0 4.2 5.6 4.2 10.5 10.2 12.7 10.5 11.6 10.2 11.3 12.7 6.7 6.0 4.7 3.5

GFSMA_prec_kuchsnow_216.txt.gz
Snowfall_Accumulation
0.0 0.0 0.0 0.0 0.0 0.0 0.0 0.0 0.0 0.0 0.0 0.0 0.0 0.0 0.0 0.0 0.0 0.0 0.0 0.0 0.0 0.0 0.0 0.0 0.0 0.0 0.0 0.0 0.0 0.0 0.0 0.0 0.0 0.0 0.0 0.0 0.0 0.0 0.0 0.0 0.0 0.0 0.0
0.0 0.0 0.0 0.0 0.0 0.0 0.0 0.0 0.0 0.0 0.0 0.0 0.0 0.0 0.0 0.0 0.0 0.0 0.0 0.0 0.0 0.0 0.0 0.0 0.0 0.0 0.0 0.0 0.0 0.0 0.0 0.0 0.0 0.0 0.0 0.0 0.0 0.0 0.0 0.0 0.0 0.0 0.0
0.0 0.0 0.0 0.0 0.0 0.0 0.0 0.0 0.0 0.0 0.0 0.0 0.0 0.0 0.0 0.0 0.0 0.0 0.0 0.0 0.0 0.0 0.0 0.0 0.0 0.0 0.0 0.0 0.0 0.0 0.0 0.0 0.0 0.0 0.0 0.0 0.0 0.0 0.0 0.0 0.0 0.0 0.0
0.0 0.0 0.0 0.0 0.0 0.0 0.0 0.0 0.0 0.0 0.0 0.0 0.0 0.0 0.0 0.0 0.0 0.0 0.0 0.0 0.0 0.0 0.0 0.0 0.0 0.0 0.0 0.0 0.0 0.0 0.0 0.0 0.0 0.0 0.0 0.0 0.0 0.0 0.0 0.0 0.0 0.0 0.0
0.0 0.0 0.0 0.0 0.0 0.0 0.0 0.0 0.0 0.0 0.0 0.0 0.0 0.0 0.0 0.0 0.0 0.0 0.0 0.0 0.0 0.0 0.0 0.0 0.0 0.0 0.0 0.0 0.0 0.0 0.0 0.0 0.0 0.0 0.0 0.0 0.0 0.0 0.0 0.0 0.0 0.0 0.0
0.0 0.0 0.0 0.0 0.0 0.0 0.0 0.0 0.0 0.0 0.0 0.0 0.0 0.0 0.0 0.0 0.0 0.0 0.0 0.0 0.0 0.0 0.0 0.0 0.0 0.0 0.0 0.0 0.0 0.0 0.0 0.0 0.0 0.0 0.0 0.0 0.0 0.0 0.0 0.0 0.0 0.0 0.0
0.0 0.0 0.0 0.0 0.0 0.0 0.0 0.0 0.0 0.0 0.0 0.0 0.0 0.0 0.0 0.0 0.0 0.0 0.0 0.0 0.0 0.0 0.0 0.0 0.0 0.0 0.0 0.0 0.0 0.0 0.0 0.0 0.0 0.0 0.0 0.0 0.0 0.0 0.0 0.0 0.0 0.0 0.0
0.0 0.0 0.0 0.0 0.0 0.0 0.0 0.0 0.0 0.0 0.0 0.0 0.0 0.0 0.0 0.0 0.0 0.0 0.0 0.0 0.0 0.0 0.0 0.0 0.0 0.0 0.0 0.0 0.0 0.0 0.0 0.0 0.0 0.0 0.0 0.0 0.0 0.0 0.0 0.0 0.0 0.0 0.0
0.0 0.0 0.0 0.0 0.0 0.0 0.0 0.0 0.0 0.0 0.1 0.0 0.0 0.1 0.2 0.0 0.0 0.0 0.0 0.0 0.0 0.0 0.0 0.0 0.0 0.0 0.0 0.0 0.0 0.0 0.0 0.0 0.0 0.0 0.0 0.0 0.0 0.0 0.0 0.0 0.0 0.0 0.0
0.0 0.0 0.0 0.0 0.0 0.0 0.0 0.0 0.0 0.0 0.1 0.1 0.0 0.0 0.0 0.1 0.4 0.0 0.0 0.0 0.0 0.0 0.0 0.0 0.0 0.0 0.0 0.0 0.0 0.0 0.0 0.0 0.0 0.0 0.0 0.0 0.0 0.0 0.0 0.0 0.0 0.0 0.0
0.0 0.0 0.0 0.0 0.0 0.0 0.0 0.0 0.0 0.0 0.0 0.1 0.1 0.1 0.0 0.0 0.0 0.2 0.0 0.0 0.0 0.0 0.0 0.0 0.0 0.0 0.0 0.0 0.0 0.0 0.0 0.0 0.0 0.0 0.0 0.0 0.0 0.0 0.0 0.0 0.0 0.0 0.0
0.0 0.0 0.0 0.0 0.0 0.0 0.1 0.0 0.1 0.1 0.1 0.1 0.1 0.1 0.2 0.4 0.2 0.4 0.4 0.0 0.0 0.0 0.0 0.0 0.0 0.0 0.0 0.0 0.0 0.0 0.0 0.0 0.0 0.0 0.0 0.0 0.0 0.0 0.0 0.0 0.0 0.0 0.0
0.0 0.0 0.0 0.0 0.0 0.1 0.1 0.1 0.0 0.1 0.2 0.2 0.3 0.2 0.1 0.1 0.1 0.1 0.4 0.1 0.1 0.0 0.0 0.0 0.0 0.0 0.0 0.0 0.0 0.0 0.0 0.0 0.0 0.0 0.0 0.0 0.0 0.0 0.0 0.0 0.0 0.0 0.0
0.2 0.1 0.2 0.0 0.0 0.2 0.0 0.1 0.1 0.1 0.2 0.4 0.2 0.2 0.2 0.2 0.0 0.1 0.4 0.6 0.6 0.0 0.0 0.0 0.0 0.0 0.0 0.0 0.0 0.0 0.0 0.0 0.0 0.0 0.0 0.0 0.0 0.0 0.0 0.0 0.0 0.0 0.0
0.2 0.2 0.1 0.1 0.1 0.1 0.1 0.1 0.2 0.3 0.3 0.6 0.6 0.5 0.4 0.3 0.2 0.0 0.1 0.3 2.4 3.3 0.5 0.0 0.1 0.0 0.0 0.0 0.0 0.0 0.1 0.0 0.0 0.0 0.1 0.0 0.0 0.0 0.0 0.0 0.0 0.0 0.0
0.9 0.7 0.4 0.4 0.3 0.4 0.2 0.2 0.4 0.6 0.5 0.5 0.6 0.6 0.5 0.5 0.4 0.5 0.3 0.1 0.5 1.7 1.7 0.2 0.2 0.2 0.1 0.0 0.1 0.1 0.2 0.7 0.6 0.6 0.2 0.3 0.0 0.0 0.0 0.0 0.0 0.0 0.0
1.0 0.8 1.0 1.0 1.2 1.2 1.1 1.0 0.8 0.8 0.9 0.6 0.4 1.0 0.9 0.6 0.8 0.9 0.7 0.5 0.3 0.7 1.4 1.0 0.4 0.3 0.3 0.3 0.3 0.1 0.2 0.3 2.3 1.6 0.7 0.2 0.1 0.0 0.0 0.0 0.0 0.0 0.0
1.3 1.4 1.3 1.1 1.2 1.4 1.4 1.7 1.8 1.6 1.7 1.4 1.2 1.0 1.1 0.8 1.3 1.7 1.6 1.4 1.2 1.1 1.0 2.5 1.4 1.0 0.9 1.3 1.9 0.9 0.5 0.1 0.5 1.1 1.5 1.3 0.3 0.2 0.0 0.1 0.2 0.0 0.1
2.1 1.4 1.6 2.1 1.8 1.7 1.5 1.6 1.8 1.7 1.7 1.8 2.0 2.0 2.2 1.3 1.0 2.1 3.1 3.5 2.0 0.9 1.5 2.1 3.0 1.8 2.0 2.1 2.3 2.1 0.6 0.4 0.0 0.4 1.2 1.9 2.1 1.4 0.8 0.4 0.2 0.0 0.0
0.9 1.1 1.6 2.4 2.7 1.9 1.4 1.7 1.5 1.5 1.7 2.5 2.6 2.3 2.7 2.3 2.8 2.3 2.5 4.2 3.8 3.2 2.7 3.2 3.3 4.1 3.6 6.4 1.8 3.8 6.5 2.2 1.1 0.1 0.1 0.4 0.3 0.3 0.7 1.3 1.8 0.5 0.4
1.2 0.3 0.0 0.2 0.3 0.9 1.8 1.5 1.5 1.3 1.0 1.9 2.1 1.3 1.6 1.9 1.8 2.5 3.0 3.5 3.1 3.5 3.5 5.3 6.6 8.3 8.9 10.2 10.0 6.5 4.8 5.1 3.9 1.9 0.9 0.0 0.1 0.1 0.1 0.1 1.0 1.6 2.0
1.3 1.7 2.2 1.9 1.5 1.7 0.6 0.7 1.1 1.4 2.4 2.3 1.2 1.2 1.0 0.8 0.9 1.1 1.6 1.4 1.4 2.6 4.1 4.5 5.2 7.1 9.5 7.4 6.7 5.5 6.8 8.3 10.3 4.9 4.3 4.3 0.3 0.9 0.2 0.1 0.4 0.5 0.8
5.7 4.3 5.6 3.7 4.7 4.9 2.9 1.4 1.1 1.5 1.7 1.5 0.7 0.8 0.9 0.5 0.1 0.2 0.0 0.0 0.1 0.2 0.8 1.1 2.8 3.0 4.8 5.2 4.3 4.9 4.0 3.0 2.9 2.6 2.3 8.1 3.4 3.4 1.3 0.1 0.3 0.3 0.2
9.0 9.0 9.6 10.2 9.7 11.6 7.4 10.7 12.0 7.2 7.0 7.6 7.5 5.7 2.3 1.2 1.6 0.5 0.8 0.5 0.1 0.2 0.1 0.1 0.3 0.3 1.8 1.1 0.2 0.1 4.2 4.3 6.2 5.3 2.6 11.6 7.6 8.5 3.3 1.9 1.3 0.6 0.4
17.8 16.7 14.2 12.4 12.5 9.0 7.0 4.7 6.4 10.7 16.3 15.6 7.9 8.2 8.3 10.8 8.5 6.2 3.2 1.6 1.6 1.3 1.6 3.8 0.7 2.6 2.5 2.6 2.8 7.3 12.6 12.8 12.2 11.3 6.6 6.9 7.9 11.5 12.5 12.7 8.6 4.7 3.4
14.8 14.9 15.9 15.5 13.1 14.7 9.3 8.7 7.5 7.0 8.5 8.8 9.7 10.5 7.5 7.5 8.3 6.8 3.1 6.7 5.8 5.3 7.4 7.8 10.2 9.1 8.3 8.0 4.2 5.6 4.2 10.6 11.5 16.5 13.5 14.3 13.7 14.4 20.0 11.5 9.3 6.9 4.8

GFSMA_prec_kuchsnow_219.txt.gz
Snowfall_Accumulation
0.0 0.0 0.0 0.0 0.0 0.0 0.0 0.0 0.0 0.0 0.0 0.0 0.0 0.0 0.0 0.0 0.0 0.0 0.0 0.0 0.0 0.0 0.0 0.0 0.0 0.0 0.0 0.0 0.0 0.0 0.0 0.0 0.0 0.0 0.0 0.0 0.0 0.0 0.0 0.0 0.0 0.0 0.0
0.0 0.0 0.0 0.0 0.0 0.0 0.0 0.0 0.0 0.0 0.0 0.0 0.0 0.0 0.0 0.0 0.0 0.0 0.0 0.0 0.0 0.0 0.0 0.0 0.0 0.0 0.0 0.0 0.0 0.0 0.0 0.0 0.0 0.0 0.0 0.0 0.0 0.0 0.0 0.0 0.0 0.0 0.0
0.0 0.0 0.0 0.0 0.0 0.0 0.0 0.0 0.0 0.0 0.0 0.0 0.0 0.0 0.0 0.0 0.0 0.0 0.0 0.0 0.0 0.0 0.0 0.0 0.0 0.0 0.0 0.0 0.0 0.0 0.0 0.0 0.0 0.0 0.0 0.0 0.0 0.0 0.0 0.0 0.0 0.0 0.0
0.0 0.0 0.0 0.0 0.0 0.0 0.0 0.0 0.0 0.0 0.0 0.0 0.0 0.0 0.0 0.0 0.0 0.0 0.0 0.0 0.0 0.0 0.0 0.0 0.0 0.0 0.0 0.0 0.0 0.0 0.0 0.0 0.0 0.0 0.0 0.0 0.0 0.0 0.0 0.0 0.0 0.0 0.0
0.0 0.0 0.0 0.0 0.0 0.0 0.0 0.0 0.0 0.0 0.0 0.0 0.0 0.0 0.0 0.0 0.0 0.0 0.0 0.0 0.0 0.0 0.0 0.0 0.0 0.0 0.0 0.0 0.0 0.0 0.0 0.0 0.0 0.0 0.0 0.0 0.0 0.0 0.0 0.0 0.0 0.0 0.0
0.0 0.0 0.0 0.0 0.0 0.0 0.0 0.0 0.0 0.0 0.0 0.0 0.0 0.0 0.0 0.0 0.0 0.0 0.0 0.0 0.0 0.0 0.0 0.0 0.0 0.0 0.0 0.0 0.0 0.0 0.0 0.0 0.0 0.0 0.0 0.0 0.0 0.0 0.0 0.0 0.0 0.0 0.0
0.0 0.0 0.0 0.0 0.0 0.0 0.0 0.0 0.0 0.0 0.0 0.0 0.0 0.0 0.0 0.0 0.0 0.0 0.0 0.0 0.0 0.0 0.0 0.0 0.0 0.0 0.0 0.0 0.0 0.0 0.0 0.0 0.0 0.0 0.0 0.0 0.0 0.0 0.0 0.0 0.0 0.0 0.0
0.0 0.0 0.0 0.0 0.0 0.0 0.0 0.0 0.0 0.0 0.0 0.0 0.0 0.0 0.0 0.0 0.0 0.0 0.0 0.0 0.0 0.0 0.0 0.0 0.0 0.0 0.0 0.0 0.0 0.0 0.0 0.0 0.0 0.0 0.0 0.0 0.0 0.0 0.0 0.0 0.0 0.0 0.0
0.0 0.0 0.0 0.0 0.0 0.0 0.0 0.0 0.0 0.0 0.1 0.0 0.0 0.1 0.2 0.0 0.0 0.0 0.0 0.0 0.0 0.0 0.0 0.0 0.0 0.0 0.0 0.0 0.0 0.0 0.0 0.0 0.0 0.0 0.0 0.0 0.0 0.0 0.0 0.0 0.0 0.0 0.0
0.0 0.0 0.0 0.0 0.0 0.0 0.0 0.0 0.0 0.0 0.1 0.1 0.0 0.0 0.0 0.1 0.4 0.0 0.0 0.0 0.0 0.0 0.0 0.0 0.0 0.0 0.0 0.0 0.0 0.0 0.0 0.0 0.0 0.0 0.0 0.0 0.0 0.0 0.0 0.0 0.0 0.0 0.0
0.0 0.0 0.0 0.0 0.0 0.0 0.0 0.0 0.0 0.0 0.0 0.1 0.1 0.1 0.0 0.0 0.0 0.2 0.0 0.0 0.0 0.0 0.0 0.0 0.0 0.0 0.0 0.0 0.0 0.0 0.0 0.0 0.0 0.0 0.0 0.0 0.0 0.0 0.0 0.0 0.0 0.0 0.0
0.0 0.0 0.0 0.0 0.0 0.0 0.1 0.0 0.1 0.1 0.1 0.1 0.1 0.1 0.2 0.4 0.2 0.4 0.4 0.0 0.0 0.0 0.0 0.0 0.0 0.0 0.0 0.0 0.0 0.0 0.0 0.0 0.0 0.0 0.0 0.0 0.0 0.0 0.0 0.0 0.0 0.0 0.0
0.0 0.0 0.0 0.0 0.0 0.1 0.1 0.1 0.0 0.1 0.2 0.2 0.3 0.2 0.1 0.1 0.1 0.1 0.4 0.1 0.1 0.0 0.0 0.0 0.0 0.0 0.0 0.0 0.0 0.0 0.0 0.0 0.0 0.0 0.0 0.0 0.0 0.0 0.0 0.0 0.0 0.0 0.0
0.2 0.1 0.2 0.0 0.0 0.2 0.0 0.1 0.1 0.1 0.2 0.4 0.2 0.2 0.2 0.2 0.0 0.1 0.4 0.6 0.6 0.0 0.0 0.0 0.0 0.0 0.0 0.0 0.0 0.0 0.0 0.0 0.0 0.0 0.0 0.0 0.0 0.0 0.0 0.0 0.0 0.0 0.0
0.2 0.2 0.1 0.1 0.1 0.1 0.1 0.1 0.2 0.3 0.3 0.6 0.6 0.5 0.4 0.3 0.2 0.0 0.1 0.3 2.4 3.3 0.5 0.0 0.1 0.0 0.0 0.0 0.0 0.0 0.1 0.0 0.0 0.0 0.1 0.0 0.0 0.0 0.0 0.0 0.0 0.0 0.0
0.9 0.7 0.4 0.4 0.3 0.4 0.2 0.2 0.4 0.6 0.5 0.5 0.6 0.6 0.5 0.5 0.4 0.5 0.3 0.1 0.5 1.7 1.7 0.2 0.2 0.2 0.1 0.0 0.1 0.1 0.2 0.7 0.6 0.6 0.2 0.3 0.0 0.0 0.0 0.0 0.0 0.0 0.0
1.0 0.8 1.0 1.0 1.2 1.2 1.1 1.0 0.8 0.8 0.9 0.6 0.4 1.0 0.9 0.6 0.8 0.9 0.7 0.5 0.3 0.7 1.4 1.0 0.4 0.3 0.3 0.3 0.3 0.1 0.2 0.3 2.3 1.6 0.7 0.2 0.1 0.0 0.0 0.0 0.0 0.0 0.0
1.3 1.4 1.3 1.1 1.2 1.4 1.4 1.7 1.8 1.6 1.7 1.4 1.2 1.0 1.1 0.8 1.3 1.7 1.6 1.4 1.2 1.1 1.0 2.5 1.4 1.0 0.9 1.3 1.9 0.9 0.5 0.1 0.5 1.1 1.5 1.3 0.3 0.2 0.0 0.1 0.2 0.0 0.1
2.1 1.4 1.6 2.1 1.8 1.7 1.5 1.6 1.8 1.7 1.7 1.8 2.0 2.0 2.2 1.3 1.0 2.1 3.1 3.5 2.0 0.9 1.5 2.1 3.0 1.8 2.0 2.1 2.3 2.1 0.6 0.4 0.0 0.4 1.2 1.9 2.1 1.4 0.8 0.4 0.2 0.0 0.0
0.9 1.1 1.6 2.4 2.7 1.9 1.4 1.7 1.5 1.5 1.7 2.5 2.6 2.3 2.7 2.3 2.8 2.3 2.5 4.2 3.8 3.2 2.7 3.2 3.3 4.1 3.6 6.4 1.8 3.8 6.5 2.2 1.1 0.1 0.1 0.4 0.3 0.3 0.7 1.3 1.8 0.5 0.4
1.2 0.3 0.0 0.2 0.3 0.9 1.8 1.5 1.5 1.3 1.0 1.9 2.1 1.3 1.6 1.9 1.8 2.5 3.0 3.5 3.1 3.5 3.5 5.3 6.6 8.3 8.9 10.2 10.0 6.5 4.8 5.1 3.9 1.9 0.9 0.0 0.1 0.1 0.1 0.1 1.0 1.6 2.0
1.3 1.7 2.2 1.9 1.5 1.7 0.6 0.7 1.1 1.4 2.4 2.3 1.2 1.2 1.0 0.8 0.9 1.1 1.6 1.4 1.4 2.6 4.2 4.6 5.3 7.1 9.5 7.4 6.7 5.5 6.8 8.3 10.3 4.9 4.3 4.3 0.3 0.9 0.2 0.1 0.4 0.5 0.8
5.7 4.3 5.6 3.7 4.7 4.9 2.9 1.4 1.1 1.5 1.7 1.5 0.7 0.8 0.9 0.5 0.1 0.2 0.0 0.0 0.1 0.2 0.8 1.3 3.0 3.0 4.9 5.2 4.3 4.9 4.0 3.0 2.9 2.6 2.3 8.1 3.4 3.4 1.3 0.1 0.3 0.3 0.2
9.0 9.0 9.6 10.2 9.7 11.6 7.4 10.7 12.0 7.2 7.0 7.6 7.5 5.7 2.3 1.2 1.6 0.5 0.8 0.5 0.1 0.2 0.1 0.2 0.3 0.3 1.8 1.1 0.2 0.1 4.2 4.3 6.5 5.3 2.6 12.3 8.6 9.7 3.3 1.9 1.3 0.6 0.4
17.8 16.7 14.2 12.4 12.5 9.0 7.0 4.7 6.4 10.7 16.3 15.6 7.9 8.2 8.3 10.8 8.5 6.2 3.2 1.6 1.6 1.3 1.6 3.8 0.7 2.6 2.5 2.6 2.8 7.3 12.6 13.0 12.8 12.2 7.2 7.5 8.9 13.1 14.5 15.2 8.6 4.7 3.4
14.8 14.9 15.9 15.5 13.1 14.7 9.3 8.7 7.5 7.0 8.5 8.8 9.7 10.5 7.5 7.5 8.3 6.8 3.1 6.7 5.8 5.3 7.4 7.8 10.2 9.1 8.3 8.0 4.2 5.6 4.2 10.7 11.5 17.0 13.9 15.0 14.3 14.7 22.2 14.2 12.0 6.9 6.3

GFSMA_prec_kuchsnow_222.txt.gz
Snowfall_Accumulation
0.0 0.0 0.0 0.0 0.0 0.0 0.0 0.0 0.0 0.0 0.0 0.0 0.0 0.0 0.0 0.0 0.0 0.0 0.0 0.0 0.0 0.0 0.0 0.0 0.0 0.0 0.0 0.0 0.0 0.0 0.0 0.0 0.0 0.0 0.0 0.0 0.0 0.0 0.0 0.0 0.0 0.0 0.0
0.0 0.0 0.0 0.0 0.0 0.0 0.0 0.0 0.0 0.0 0.0 0.0 0.0 0.0 0.0 0.0 0.0 0.0 0.0 0.0 0.0 0.0 0.0 0.0 0.0 0.0 0.0 0.0 0.0 0.0 0.0 0.0 0.0 0.0 0.0 0.0 0.0 0.0 0.0 0.0 0.0 0.0 0.0
0.0 0.0 0.0 0.0 0.0 0.0 0.0 0.0 0.0 0.0 0.0 0.0 0.0 0.0 0.0 0.0 0.0 0.0 0.0 0.0 0.0 0.0 0.0 0.0 0.0 0.0 0.0 0.0 0.0 0.0 0.0 0.0 0.0 0.0 0.0 0.0 0.0 0.0 0.0 0.0 0.0 0.0 0.0
0.0 0.0 0.0 0.0 0.0 0.0 0.0 0.0 0.0 0.0 0.0 0.0 0.0 0.0 0.0 0.0 0.0 0.0 0.0 0.0 0.0 0.0 0.0 0.0 0.0 0.0 0.0 0.0 0.0 0.0 0.0 0.0 0.0 0.0 0.0 0.0 0.0 0.0 0.0 0.0 0.0 0.0 0.0
0.0 0.0 0.0 0.0 0.0 0.0 0.0 0.0 0.0 0.0 0.0 0.0 0.0 0.0 0.0 0.0 0.0 0.0 0.0 0.0 0.0 0.0 0.0 0.0 0.0 0.0 0.0 0.0 0.0 0.0 0.0 0.0 0.0 0.0 0.0 0.0 0.0 0.0 0.0 0.0 0.0 0.0 0.0
0.0 0.0 0.0 0.0 0.0 0.0 0.0 0.0 0.0 0.0 0.0 0.0 0.0 0.0 0.0 0.0 0.0 0.0 0.0 0.0 0.0 0.0 0.0 0.0 0.0 0.0 0.0 0.0 0.0 0.0 0.0 0.0 0.0 0.0 0.0 0.0 0.0 0.0 0.0 0.0 0.0 0.0 0.0
0.0 0.0 0.0 0.0 0.0 0.0 0.0 0.0 0.0 0.0 0.0 0.0 0.0 0.0 0.0 0.0 0.0 0.0 0.0 0.0 0.0 0.0 0.0 0.0 0.0 0.0 0.0 0.0 0.0 0.0 0.0 0.0 0.0 0.0 0.0 0.0 0.0 0.0 0.0 0.0 0.0 0.0 0.0
0.0 0.0 0.0 0.0 0.0 0.0 0.0 0.0 0.0 0.0 0.0 0.0 0.0 0.0 0.0 0.0 0.0 0.0 0.0 0.0 0.0 0.0 0.0 0.0 0.0 0.0 0.0 0.0 0.0 0.0 0.0 0.0 0.0 0.0 0.0 0.0 0.0 0.0 0.0 0.0 0.0 0.0 0.0
0.0 0.0 0.0 0.0 0.0 0.0 0.0 0.0 0.0 0.0 0.1 0.0 0.0 0.1 0.2 0.0 0.0 0.0 0.0 0.0 0.0 0.0 0.0 0.0 0.0 0.0 0.0 0.0 0.0 0.0 0.0 0.0 0.0 0.0 0.0 0.0 0.0 0.0 0.0 0.0 0.0 0.0 0.0
0.0 0.0 0.0 0.0 0.0 0.0 0.0 0.0 0.0 0.0 0.1 0.1 0.0 0.0 0.0 0.1 0.4 0.0 0.0 0.0 0.0 0.0 0.0 0.0 0.0 0.0 0.0 0.0 0.0 0.0 0.0 0.0 0.0 0.0 0.0 0.0 0.0 0.0 0.0 0.0 0.0 0.0 0.0
0.0 0.0 0.0 0.0 0.0 0.0 0.0 0.0 0.0 0.0 0.0 0.1 0.1 0.1 0.0 0.0 0.0 0.2 0.0 0.0 0.0 0.0 0.0 0.0 0.0 0.0 0.0 0.0 0.0 0.0 0.0 0.0 0.0 0.0 0.0 0.0 0.0 0.0 0.0 0.0 0.0 0.0 0.0
0.0 0.0 0.0 0.0 0.0 0.0 0.1 0.0 0.1 0.1 0.1 0.1 0.1 0.1 0.2 0.4 0.2 0.4 0.4 0.0 0.0 0.0 0.0 0.0 0.0 0.0 0.0 0.0 0.0 0.0 0.0 0.0 0.0 0.0 0.0 0.0 0.0 0.0 0.0 0.0 0.0 0.0 0.0
0.0 0.0 0.0 0.0 0.0 0.1 0.1 0.1 0.0 0.1 0.2 0.2 0.3 0.2 0.1 0.1 0.1 0.1 0.4 0.1 0.1 0.0 0.0 0.0 0.0 0.0 0.0 0.0 0.0 0.0 0.0 0.0 0.0 0.0 0.0 0.0 0.0 0.0 0.0 0.0 0.0 0.0 0.0
0.2 0.1 0.2 0.0 0.0 0.2 0.0 0.1 0.1 0.1 0.2 0.4 0.2 0.2 0.2 0.2 0.0 0.1 0.4 0.6 0.6 0.0 0.0 0.0 0.0 0.0 0.0 0.0 0.0 0.0 0.0 0.0 0.0 0.0 0.0 0.0 0.0 0.0 0.0 0.0 0.0 0.0 0.0
0.2 0.2 0.1 0.1 0.1 0.1 0.1 0.1 0.2 0.3 0.3 0.6 0.6 0.5 0.4 0.3 0.2 0.0 0.1 0.3 2.4 3.3 0.5 0.0 0.1 0.0 0.0 0.0 0.0 0.0 0.1 0.0 0.0 0.0 0.1 0.0 0.0 0.0 0.0 0.0 0.0 0.0 0.0
0.9 0.7 0.4 0.4 0.3 0.4 0.2 0.2 0.4 0.6 0.5 0.5 0.6 0.6 0.5 0.5 0.4 0.5 0.3 0.1 0.5 1.7 1.7 0.2 0.2 0.2 0.1 0.0 0.1 0.1 0.2 0.7 0.6 0.6 0.2 0.3 0.0 0.0 0.0 0.0 0.0 0.0 0.0
1.0 0.8 1.0 1.0 1.2 1.2 1.1 1.0 0.8 0.8 0.9 0.6 0.4 1.0 0.9 0.6 0.8 0.9 0.7 0.5 0.3 0.7 1.4 1.0 0.4 0.3 0.3 0.3 0.3 0.1 0.2 0.3 2.3 1.6 0.7 0.2 0.1 0.0 0.0 0.0 0.0 0.0 0.0
1.3 1.4 1.3 1.1 1.2 1.4 1.4 1.7 1.8 1.6 1.7 1.4 1.2 1.0 1.1 0.8 1.3 1.7 1.6 1.4 1.2 1.1 1.0 2.5 1.4 1.0 0.9 1.3 1.9 0.9 0.5 0.1 0.5 1.1 1.5 1.3 0.3 0.2 0.0 0.1 0.2 0.0 0.1
2.1 1.4 1.6 2.1 1.8 1.7 1.5 1.6 1.8 1.7 1.7 1.8 2.0 2.0 2.2 1.3 1.0 2.1 3.1 3.5 2.0 0.9 1.5 2.1 3.0 1.8 2.0 2.1 2.3 2.1 0.6 0.4 0.0 0.4 1.2 1.9 2.1 1.4 0.8 0.4 0.2 0.0 0.0
0.9 1.1 1.6 2.4 2.7 1.9 1.4 1.7 1.5 1.5 1.7 2.5 2.6 2.3 2.7 2.3 2.8 2.3 2.5 4.2 3.8 3.2 2.7 3.2 3.3 4.1 3.6 6.4 1.8 3.8 6.5 2.2 1.1 0.1 0.1 0.4 0.3 0.3 0.7 1.3 1.8 0.5 0.4
1.2 0.3 0.0 0.2 0.3 0.9 1.8 1.5 1.5 1.3 1.0 1.9 2.1 1.3 1.6 1.9 1.8 2.5 3.0 3.5 3.1 3.5 3.5 5.3 6.6 8.3 8.9 10.2 10.0 6.5 4.8 5.1 3.9 1.9 0.9 0.0 0.1 0.1 0.1 0.1 1.0 1.6 2.0
1.3 1.7 2.2 1.9 1.5 1.7 0.6 0.7 1.1 1.4 2.4 2.3 1.2 1.2 1.0 0.8 0.9 1.1 1.6 1.4 1.4 2.6 4.2 4.6 5.3 7.2 9.5 7.4 6.8 5.6 6.8 8.3 10.4 4.9 4.3 4.3 0.3 0.9 0.2 0.1 0.4 0.5 0.8
5.7 4.3 5.6 3.7 4.7 4.9 2.9 1.4 1.1 1.5 1.7 1.5 0.7 0.8 0.9 0.5 0.1 0.2 0.0 0.0 0.1 0.2 0.8 1.5 3.1 3.0 4.9 5.2 4.5 5.0 4.0 3.0 3.0 2.6 2.3 8.1 3.4 3.4 1.3 0.1 0.3 0.3 0.2
9.0 9.0 9.6 10.2 9.7 11.6 7.4 10.7 12.0 7.2 7.0 7.6 7.5 5.7 2.3 1.2 1.6 0.5 0.8 0.5 0.1 0.2 0.1 0.3 0.3 0.3 1.8 1.1 0.2 0.1 4.2 4.5 6.5 5.3 2.8 12.8 8.9 10.1 3.3 1.9 1.3 0.6 0.4
17.8 16.7 14.2 12.4 12.5 9.0 7.0 4.7 6.4 10.7 16.3 15.6 7.9 8.2 8.3 10.8 8.5 6.2 3.2 1.6 1.6 1.3 1.6 3.8 0.7 2.6 2.5 2.6 2.8 7.3 12.7 13.0 12.8 12.6 7.3 7.8 9.4 13.7 15.4 17.1 8.6 4.7 3.4
14.8 14.9 15.9 15.5 13.1 14.7 9.3 8.7 7.5 7.0 8.5 8.8 9.7 10.5 7.5 7.5 8.3 6.8 3.1 6.7 5.8 5.3 7.4 7.8 10.2 9.1 8.3 8.0 4.2 5.6 4.2 10.7 11.7 17.1 14.0 15.4 14.8 15.2 23.7 16.2 14.9 9.5 6.3

GFSMA_prec_kuchsnow_225.txt.gz
Snowfall_Accumulation
0.0 0.0 0.0 0.0 0.0 0.0 0.0 0.0 0.0 0.0 0.0 0.0 0.0 0.0 0.0 0.0 0.0 0.0 0.0 0.0 0.0 0.0 0.0 0.0 0.0 0.0 0.0 0.0 0.0 0.0 0.0 0.0 0.0 0.0 0.0 0.0 0.0 0.0 0.0 0.0 0.0 0.0 0.0
0.0 0.0 0.0 0.0 0.0 0.0 0.0 0.0 0.0 0.0 0.0 0.0 0.0 0.0 0.0 0.0 0.0 0.0 0.0 0.0 0.0 0.0 0.0 0.0 0.0 0.0 0.0 0.0 0.0 0.0 0.0 0.0 0.0 0.0 0.0 0.0 0.0 0.0 0.0 0.0 0.0 0.0 0.0
0.0 0.0 0.0 0.0 0.0 0.0 0.0 0.0 0.0 0.0 0.0 0.0 0.0 0.0 0.0 0.0 0.0 0.0 0.0 0.0 0.0 0.0 0.0 0.0 0.0 0.0 0.0 0.0 0.0 0.0 0.0 0.0 0.0 0.0 0.0 0.0 0.0 0.0 0.0 0.0 0.0 0.0 0.0
0.0 0.0 0.0 0.0 0.0 0.0 0.0 0.0 0.0 0.0 0.0 0.0 0.0 0.0 0.0 0.0 0.0 0.0 0.0 0.0 0.0 0.0 0.0 0.0 0.0 0.0 0.0 0.0 0.0 0.0 0.0 0.0 0.0 0.0 0.0 0.0 0.0 0.0 0.0 0.0 0.0 0.0 0.0
0.0 0.0 0.0 0.0 0.0 0.0 0.0 0.0 0.0 0.0 0.0 0.0 0.0 0.0 0.0 0.0 0.0 0.0 0.0 0.0 0.0 0.0 0.0 0.0 0.0 0.0 0.0 0.0 0.0 0.0 0.0 0.0 0.0 0.0 0.0 0.0 0.0 0.0 0.0 0.0 0.0 0.0 0.0
0.0 0.0 0.0 0.0 0.0 0.0 0.0 0.0 0.0 0.0 0.0 0.0 0.0 0.0 0.0 0.0 0.0 0.0 0.0 0.0 0.0 0.0 0.0 0.0 0.0 0.0 0.0 0.0 0.0 0.0 0.0 0.0 0.0 0.0 0.0 0.0 0.0 0.0 0.0 0.0 0.0 0.0 0.0
0.0 0.0 0.0 0.0 0.0 0.0 0.0 0.0 0.0 0.0 0.0 0.0 0.0 0.0 0.0 0.0 0.0 0.0 0.0 0.0 0.0 0.0 0.0 0.0 0.0 0.0 0.0 0.0 0.0 0.0 0.0 0.0 0.0 0.0 0.0 0.0 0.0 0.0 0.0 0.0 0.0 0.0 0.0
0.0 0.0 0.0 0.0 0.0 0.0 0.0 0.0 0.0 0.0 0.0 0.0 0.0 0.0 0.0 0.0 0.0 0.0 0.0 0.0 0.0 0.0 0.0 0.0 0.0 0.0 0.0 0.0 0.0 0.0 0.0 0.0 0.0 0.0 0.0 0.0 0.0 0.0 0.0 0.0 0.0 0.0 0.0
0.0 0.0 0.0 0.0 0.0 0.0 0.0 0.0 0.0 0.0 0.1 0.0 0.0 0.1 0.2 0.0 0.0 0.0 0.0 0.0 0.0 0.0 0.0 0.0 0.0 0.0 0.0 0.0 0.0 0.0 0.0 0.0 0.0 0.0 0.0 0.0 0.0 0.0 0.0 0.0 0.0 0.0 0.0
0.0 0.0 0.0 0.0 0.0 0.0 0.0 0.0 0.0 0.0 0.1 0.1 0.0 0.0 0.0 0.1 0.4 0.0 0.0 0.0 0.0 0.0 0.0 0.0 0.0 0.0 0.0 0.0 0.0 0.0 0.0 0.0 0.0 0.0 0.0 0.0 0.0 0.0 0.0 0.0 0.0 0.0 0.0
0.0 0.0 0.0 0.0 0.0 0.0 0.0 0.0 0.0 0.0 0.0 0.1 0.1 0.1 0.0 0.0 0.0 0.2 0.0 0.0 0.0 0.0 0.0 0.0 0.0 0.0 0.0 0.0 0.0 0.0 0.0 0.0 0.0 0.0 0.0 0.0 0.0 0.0 0.0 0.0 0.0 0.0 0.0
0.0 0.0 0.0 0.0 0.0 0.0 0.1 0.0 0.1 0.1 0.1 0.1 0.1 0.1 0.2 0.4 0.2 0.4 0.4 0.0 0.0 0.0 0.0 0.0 0.0 0.0 0.0 0.0 0.0 0.0 0.0 0.0 0.0 0.0 0.0 0.0 0.0 0.0 0.0 0.0 0.0 0.0 0.0
0.0 0.0 0.0 0.0 0.0 0.1 0.1 0.1 0.0 0.1 0.2 0.2 0.3 0.2 0.1 0.1 0.1 0.1 0.4 0.1 0.1 0.0 0.0 0.0 0.0 0.0 0.0 0.0 0.0 0.0 0.0 0.0 0.0 0.0 0.0 0.0 0.0 0.0 0.0 0.0 0.0 0.0 0.0
0.2 0.1 0.2 0.0 0.0 0.2 0.0 0.1 0.1 0.1 0.2 0.4 0.2 0.2 0.2 0.2 0.0 0.1 0.4 0.6 0.6 0.0 0.0 0.0 0.0 0.0 0.0 0.0 0.0 0.0 0.0 0.0 0.0 0.0 0.0 0.0 0.0 0.0 0.0 0.0 0.0 0.0 0.0
0.2 0.2 0.1 0.1 0.1 0.1 0.1 0.1 0.2 0.3 0.3 0.6 0.6 0.5 0.4 0.3 0.2 0.0 0.1 0.3 2.4 3.3 0.5 0.0 0.1 0.0 0.0 0.0 0.0 0.0 0.1 0.0 0.0 0.0 0.1 0.0 0.0 0.0 0.0 0.0 0.0 0.0 0.0
0.9 0.7 0.4 0.4 0.3 0.4 0.2 0.2 0.4 0.6 0.5 0.5 0.6 0.6 0.5 0.5 0.4 0.5 0.3 0.1 0.5 1.7 1.7 0.2 0.2 0.2 0.1 0.0 0.1 0.1 0.2 0.7 0.6 0.6 0.2 0.3 0.0 0.0 0.0 0.0 0.0 0.0 0.0
1.0 0.8 1.0 1.0 1.2 1.2 1.1 1.0 0.8 0.8 0.9 0.6 0.4 1.0 0.9 0.6 0.8 0.9 0.7 0.5 0.3 0.7 1.4 1.0 0.4 0.3 0.3 0.3 0.3 0.1 0.2 0.3 2.3 1.6 0.7 0.2 0.1 0.0 0.0 0.0 0.0 0.0 0.0
1.3 1.4 1.3 1.1 1.2 1.4 1.4 1.7 1.8 1.6 1.7 1.4 1.2 1.0 1.1 0.8 1.3 1.7 1.6 1.4 1.2 1.1 1.0 2.5 1.4 1.0 0.9 1.3 1.9 0.9 0.5 0.1 0.5 1.1 1.5 1.3 0.3 0.2 0.0 0.1 0.2 0.0 0.1
2.1 1.4 1.6 2.1 1.8 1.7 1.5 1.6 1.8 1.7 1.7 1.8 2.0 2.0 2.2 1.3 1.0 2.1 3.1 3.5 2.0 0.9 1.5 2.1 3.0 1.8 2.0 2.1 2.3 2.1 0.6 0.4 0.0 0.4 1.2 1.9 2.1 1.4 0.8 0.4 0.2 0.0 0.0
0.9 1.1 1.6 2.4 2.7 1.9 1.4 1.7 1.5 1.5 1.7 2.5 2.6 2.3 2.7 2.3 2.8 2.3 2.5 4.2 3.8 3.2 2.7 3.2 3.3 4.1 3.6 6.4 1.8 3.8 6.5 2.2 1.1 0.1 0.1 0.4 0.3 0.3 0.7 1.3 1.8 0.5 0.4
1.2 0.3 0.0 0.2 0.3 0.9 1.8 1.5 1.5 1.3 1.0 1.9 2.1 1.3 1.6 1.9 1.8 2.5 3.0 3.5 3.1 3.5 3.5 5.3 6.6 8.3 8.9 10.2 10.0 6.5 4.8 5.1 3.9 1.9 0.9 0.0 0.1 0.1 0.1 0.1 1.0 1.6 2.0
1.3 1.7 2.2 1.9 1.5 1.7 0.6 0.7 1.1 1.4 2.4 2.3 1.2 1.2 1.0 0.8 0.9 1.1 1.6 1.4 1.4 2.6 4.2 4.6 5.3 7.2 9.5 7.4 6.8 5.6 6.9 8.3 10.4 4.9 4.3 4.3 0.3 0.9 0.2 0.1 0.4 0.5 0.8
5.7 4.3 5.6 3.7 4.7 4.9 2.9 1.4 1.1 1.5 1.7 1.5 0.7 0.8 0.9 0.5 0.1 0.2 0.0 0.0 0.1 0.2 0.8 1.5 3.1 3.0 4.9 5.2 4.5 5.0 4.0 3.0 3.0 2.6 2.3 8.1 3.4 3.4 1.3 0.1 0.3 0.3 0.2
9.0 9.0 9.6 10.2 9.7 11.6 7.4 10.7 12.0 7.2 7.0 7.6 7.5 5.7 2.3 1.2 1.6 0.5 0.8 0.5 0.1 0.2 0.1 0.3 0.3 0.3 1.8 1.1 0.2 0.1 4.2 4.5 6.5 5.3 2.8 12.8 8.9 10.2 3.3 1.9 1.3 0.6 0.4
17.8 16.7 14.2 12.4 12.5 9.0 7.0 4.7 6.4 10.7 16.3 15.6 7.9 8.2 8.3 10.8 8.5 6.2 3.2 1.6 1.6 1.3 1.6 3.8 0.7 2.6 2.5 2.6 2.8 7.3 12.7 13.0 12.8 12.6 7.3 7.8 9.5 13.9 15.5 17.1 8.6 4.7 3.4
14.8 14.9 15.9 15.5 13.1 14.7 9.3 8.7 7.5 7.0 8.5 8.8 9.7 10.5 7.5 7.5 8.3 6.8 3.1 6.7 5.8 5.3 7.4 7.8 10.2 9.1 8.3 8.0 4.2 5.6 4.2 10.7 11.8 17.2 14.0 15.4 14.8 15.5 23.7 16.7 15.6 10.8 6.3